KLM64E EHAM-SAEZ

Flight info

Callsign KLM64E
Flight time N/A
Altitude 30000
Route VALKO3S IDRID L980 MANGO DCT ENHAQ DCT GAJIT DCT GAPLI/M085F300 DCT OMOKO DCT 45N020W 39N030W/M085F320 32N035W 25N040W/M085F340 2324N04117W DCT URICO/N0502F340 DCT TODIS DCT 05N044W 01N044W/N0495F360 DCT SLI UZ2 PULUV UZ5 KUKOL UM532 MORDA/N0486F380 UM532 CUARA UL324 KUKEN KUKEN6A
Aircraft B77W/H-SDE1E2E3FGHIJ2J3J4J5M1RWXY/LB1D1

Departure

Time 2026-05-04 22:41
Airport Amsterdam Airport Schiphol (EHAM)

Arrival

Time N/A
Airport Ezeiza International Airport - Ministro Pistarini (SAEZ)
Time Latitude Longitude Altitude Speed Heading
2026-05-04 22:30 52.31317 4.75932 6 ft 0 kts 357°
2026-05-04 22:32 52.31322 4.75932 7 ft 1 kts 357°
2026-05-04 22:32 52.31345 4.75930 5 ft 6 kts 357°
2026-05-04 22:32 52.31351 4.75929 8 ft 0 kts 357°
2026-05-04 22:34 52.31381 4.75927 8 ft 12 kts 357°
2026-05-04 22:34 52.31443 4.75921 5 ft 7 kts 18°
2026-05-04 22:35 52.31450 4.76012 4 ft 15 kts 93°
2026-05-04 22:35 52.31457 4.76237 4 ft 23 kts 89°
2026-05-04 22:35 52.31464 4.76519 4 ft 24 kts 85°
2026-05-04 22:35 52.31474 4.76774 4 ft 22 kts 86°
2026-05-04 22:36 52.31483 4.77025 4 ft 22 kts 86°
2026-05-04 22:36 52.31455 4.77206 4 ft 15 kts 133°
2026-05-04 22:36 52.31381 4.77344 4 ft 18 kts 130°
2026-05-04 22:36 52.31287 4.77486 4 ft 19 kts 157°
2026-05-04 22:37 52.31151 4.77495 4 ft 20 kts 181°
2026-05-04 22:37 52.31002 4.77483 4 ft 23 kts 183°
2026-05-04 22:37 52.30840 4.77469 4 ft 21 kts 184°
2026-05-04 22:37 52.30698 4.77455 4 ft 12 kts 184°
2026-05-04 22:38 52.30630 4.77483 4 ft 11 kts 146°
2026-05-04 22:38 52.30556 4.77552 4 ft 14 kts 153°
2026-05-04 22:38 52.30463 4.77630 4 ft 14 kts 153°
2026-05-04 22:38 52.30388 4.77568 3 ft 1 kts 237°
2026-05-04 22:40 52.30382 4.77551 3 ft 10 kts 237°
2026-05-04 22:40 52.30238 4.77178 1 ft 72 kts 238°
2026-05-04 22:40 52.29857 4.76186 1 ft 132 kts 238°
2026-05-04 22:40 52.29273 4.74667 5 ft 182 kts 238°
2026-05-04 22:41 52.28555 4.72765 181 ft 198 kts 240°
2026-05-04 22:41 52.27858 4.70933 812 ft 186 kts 231°
2026-05-04 22:41 52.26945 4.69347 985 ft 201 kts 224°
2026-05-04 22:41 52.25909 4.67797 1250 ft 207 kts 226°
2026-05-04 22:42 52.24863 4.66066 1474 ft 218 kts 230°
2026-05-04 22:42 52.24103 4.63936 1645 ft 223 kts 257°
2026-05-04 22:42 52.23645 4.61413 1669 ft 241 kts 253°
2026-05-04 22:42 52.23090 4.58769 1862 ft 256 kts 253°
2026-05-04 22:43 52.22499 4.55984 2357 ft 262 kts 252°
2026-05-04 22:43 52.21896 4.53153 2916 ft 264 kts 252°
2026-05-04 22:43 52.21296 4.50319 3558 ft 263 kts 252°
2026-05-04 22:43 52.20701 4.47501 4237 ft 262 kts 253°
2026-05-04 22:44 52.20106 4.44683 4840 ft 262 kts 253°
2026-05-04 22:44 52.19509 4.41857 5323 ft 267 kts 252°
2026-05-04 22:44 52.18906 4.38999 5905 ft 267 kts 252°
2026-05-04 22:44 52.18296 4.36112 6389 ft 272 kts 251°
2026-05-04 22:45 52.17679 4.33198 6930 ft 271 kts 252°
2026-05-04 22:45 52.16436 4.27334 7988 ft 274 kts 251°
2026-05-04 22:45 52.15810 4.24390 8484 ft 276 kts 251°
2026-05-04 22:46 52.15176 4.21416 8996 ft 277 kts 251°
2026-05-04 22:46 52.14540 4.18432 9488 ft 280 kts 251°
2026-05-04 22:46 52.13894 4.15404 9876 ft 285 kts 251°
2026-05-04 22:46 52.13252 4.12399 10334 ft 288 kts 251°
2026-05-04 22:47 52.12573 4.09229 10453 ft 305 kts 251°
2026-05-04 22:47 52.11854 4.05875 10579 ft 322 kts 251°
2026-05-04 22:47 52.11095 4.02339 10711 ft 340 kts 251°
2026-05-04 22:47 52.10294 3.98613 10903 ft 355 kts 251°
2026-05-04 22:48 52.09466 3.94770 11335 ft 364 kts 251°
2026-05-04 22:48 52.08620 3.90846 11934 ft 369 kts 251°
2026-05-04 22:48 52.07760 3.86872 12627 ft 372 kts 251°
2026-05-04 22:48 52.06894 3.82880 13271 ft 378 kts 251°
2026-05-04 22:49 52.06025 3.78888 13913 ft 383 kts 251°
2026-05-04 22:49 52.05133 3.74806 14622 ft 383 kts 251°
2026-05-04 22:49 52.04237 3.70707 15306 ft 384 kts 251°
2026-05-04 22:49 52.03341 3.66616 16020 ft 386 kts 250°
2026-05-04 22:50 52.02445 3.62525 16751 ft 385 kts 250°
2026-05-04 22:50 52.01542 3.58411 17409 ft 389 kts 250°
2026-05-04 22:50 52.00622 3.54236 17909 ft 394 kts 250°
2026-05-04 22:50 51.99673 3.50035 18496 ft 397 kts 247°
2026-05-04 22:51 51.98305 3.46170 19107 ft 397 kts 234°
2026-05-04 22:51 51.96603 3.42599 19528 ft 404 kts 233°
2026-05-04 22:51 51.94865 3.38970 19866 ft 412 kts 233°
2026-05-04 22:51 51.93128 3.35261 20333 ft 416 kts 234°
2026-05-04 22:52 51.91402 3.31499 20910 ft 417 kts 234°
2026-05-04 22:52 51.89673 3.27692 21393 ft 421 kts 234°
2026-05-04 22:52 51.87957 3.23915 21939 ft 423 kts 234°
2026-05-04 22:52 51.86341 3.19957 22395 ft 423 kts 243°
2026-05-04 22:53 51.85173 3.15558 22766 ft 428 kts 252°
2026-05-04 22:53 51.84424 3.10894 23323 ft 428 kts 261°
2026-05-04 22:53 51.84086 3.06100 23787 ft 430 kts 264°
2026-05-04 22:53 51.83813 3.01268 24135 ft 434 kts 264°
2026-05-04 22:54 51.83530 2.96388 24490 ft 437 kts 264°
2026-05-04 22:54 51.83232 2.91485 24923 ft 438 kts 264°
2026-05-04 22:54 51.82918 2.86556 25303 ft 441 kts 263°
2026-05-04 22:54 51.82594 2.81603 25625 ft 445 kts 263°
2026-05-04 22:55 51.82263 2.76604 25976 ft 448 kts 263°
2026-05-04 22:55 51.81929 2.71593 26397 ft 449 kts 263°
2026-05-04 22:55 51.81596 2.66637 26802 ft 450 kts 263°
2026-05-04 22:55 51.81252 2.61584 27109 ft 454 kts 262°
2026-05-04 22:56 51.80901 2.56494 27388 ft 457 kts 262°
2026-05-04 22:56 51.80545 2.51369 27730 ft 459 kts 262°
2026-05-04 22:56 51.80187 2.46238 28093 ft 461 kts 262°
2026-05-04 22:56 51.79825 2.41075 28419 ft 463 kts 262°
2026-05-04 22:57 51.79460 2.35894 28699 ft 465 kts 262°
2026-05-04 22:57 51.79092 2.30688 28985 ft 467 kts 262°
2026-05-04 22:57 51.78720 2.25461 29261 ft 469 kts 262°
2026-05-04 22:57 51.78350 2.20212 29481 ft 472 kts 262°
2026-05-04 22:58 51.78021 2.14926 29703 ft 475 kts 263°
2026-05-04 22:58 51.77716 2.09603 29928 ft 477 kts 263°
2026-05-04 22:58 51.77210 2.00685 30019 ft 479 kts 263°
2026-05-04 22:59 51.76480 1.88326 30035 ft 474 kts 262°
2026-05-04 22:59 51.75831 1.77738 30032 ft 474 kts 262°
2026-05-04 23:00 51.75281 1.68874 30037 ft 474 kts 262°
2026-05-04 23:00 51.74619 1.58345 30040 ft 475 kts 262°
2026-05-04 23:01 51.73930 1.47738 30043 ft 475 kts 262°
2026-05-04 23:01 51.73196 1.37126 30035 ft 476 kts 258°
2026-05-04 23:02 51.71799 1.26698 30053 ft 476 kts 254°
2026-05-04 23:02 51.70267 1.16284 30049 ft 478 kts 254°
2026-05-04 23:03 51.68751 1.05838 30044 ft 479 kts 255°
2026-05-04 23:03 51.67255 0.95386 30057 ft 479 kts 255°
2026-05-04 23:04 51.65759 0.84935 30046 ft 478 kts 255°
2026-05-04 23:04 51.64264 0.74555 30051 ft 478 kts 254°
2026-05-04 23:05 51.62753 0.64154 30045 ft 477 kts 254°
2026-05-04 23:05 51.61234 0.53767 30048 ft 476 kts 254°
2026-05-04 23:06 51.59708 0.43400 30049 ft 477 kts 254°
2026-05-04 23:06 51.58167 0.33013 30035 ft 478 kts 254°
2026-05-04 23:07 51.56612 0.22596 30020 ft 480 kts 254°
2026-05-04 23:07 51.55041 0.12137 30027 ft 482 kts 254°
2026-05-04 23:08 51.53466 0.01719 30022 ft 483 kts 253°
2026-05-04 23:08 51.51868 -0.08777 30037 ft 485 kts 253°
2026-05-04 23:09 51.50256 -0.19305 30027 ft 485 kts 253°
2026-05-04 23:09 51.48634 -0.29820 30025 ft 485 kts 253°
2026-05-04 23:10 51.47003 -0.40333 30046 ft 485 kts 253°
2026-05-04 23:10 51.45365 -0.50820 30050 ft 484 kts 253°
2026-05-04 23:11 51.43735 -0.61188 30047 ft 484 kts 253°
2026-05-04 23:11 51.42080 -0.71643 30043 ft 483 kts 253°
2026-05-04 23:12 51.40417 -0.82087 30044 ft 483 kts 253°
2026-05-04 23:12 51.38746 -0.92515 30037 ft 483 kts 253°
2026-05-04 23:13 51.37067 -1.02929 30037 ft 482 kts 253°
2026-05-04 23:13 51.35387 -1.13290 30025 ft 480 kts 253°
2026-05-04 23:14 51.33716 -1.23532 30027 ft 478 kts 252°
2026-05-04 23:14 51.32026 -1.33817 30027 ft 477 kts 252°
2026-05-04 23:15 51.30333 -1.44068 30037 ft 477 kts 252°
2026-05-04 23:15 51.28627 -1.54321 30011 ft 478 kts 252°
2026-05-04 23:16 51.26911 -1.64586 30027 ft 478 kts 252°
2026-05-04 23:16 51.25184 -1.74855 30024 ft 479 kts 252°
2026-05-04 23:17 51.23447 -1.85123 30022 ft 479 kts 252°
2026-05-04 23:17 51.21700 -1.95387 30039 ft 480 kts 251°
2026-05-04 23:18 51.19942 -2.05650 30041 ft 480 kts 251°
2026-05-04 23:18 51.18172 -2.15932 30037 ft 480 kts 251°
2026-05-04 23:19 51.16405 -2.26132 30036 ft 481 kts 251°
2026-05-04 23:19 51.14616 -2.36395 30026 ft 481 kts 251°
2026-05-04 23:20 51.12816 -2.46665 30031 ft 482 kts 251°
2026-05-04 23:20 51.10999 -2.56974 30023 ft 483 kts 251°
2026-05-04 23:21 51.09170 -2.67292 30023 ft 484 kts 251°
2026-05-04 23:21 51.07333 -2.77595 30023 ft 484 kts 251°
2026-05-04 23:22 51.05494 -2.87846 30046 ft 485 kts 251°
2026-05-04 23:22 51.03632 -2.98173 30040 ft 486 kts 251°
2026-05-04 23:23 51.01758 -3.08505 30038 ft 487 kts 251°
2026-05-04 23:23 50.99872 -3.18847 30035 ft 487 kts 251°
2026-05-04 23:24 50.97990 -3.29107 30031 ft 487 kts 251°
2026-05-04 23:24 50.96084 -3.39435 30035 ft 488 kts 251°
2026-05-04 23:25 50.94166 -3.49781 30027 ft 489 kts 251°
2026-05-04 23:25 50.92235 -3.60134 30032 ft 489 kts 251°
2026-05-04 23:26 50.90293 -3.70490 30033 ft 490 kts 251°
2026-05-04 23:26 50.88342 -3.80826 30034 ft 490 kts 252°
2026-05-04 23:27 50.86393 -3.91104 30042 ft 490 kts 252°
2026-05-04 23:27 50.84419 -4.01459 30041 ft 491 kts 252°
2026-05-04 23:28 50.82435 -4.11805 30042 ft 491 kts 252°
2026-05-04 23:28 50.80453 -4.22091 30050 ft 492 kts 252°
2026-05-04 23:29 50.78447 -4.32452 30048 ft 493 kts 252°
2026-05-04 23:29 50.76422 -4.42825 30044 ft 495 kts 252°
2026-05-04 23:30 50.74385 -4.53217 30044 ft 495 kts 252°
2026-05-04 23:30 50.72339 -4.63608 30043 ft 496 kts 252°
2026-05-04 23:31 50.70278 -4.74010 30034 ft 497 kts 253°
2026-05-04 23:31 50.68203 -4.84436 30042 ft 498 kts 252°
2026-05-04 23:32 50.66128 -4.94803 30039 ft 499 kts 252°
2026-05-04 23:32 50.64028 -5.05233 30041 ft 499 kts 252°
2026-05-04 23:33 50.61916 -5.15673 30045 ft 500 kts 252°
2026-05-04 23:33 50.59797 -5.26089 30046 ft 499 kts 252°
2026-05-04 23:34 50.57666 -5.36511 30045 ft 499 kts 252°
2026-05-04 23:34 50.55544 -5.46832 30046 ft 499 kts 252°
2026-05-04 23:35 50.53400 -5.57207 30046 ft 498 kts 252°
2026-05-04 23:35 50.51244 -5.67590 30046 ft 501 kts 252°
2026-05-04 23:36 50.49069 -5.78011 30053 ft 502 kts 252°
2026-05-04 23:36 50.46878 -5.88445 30048 ft 503 kts 252°
2026-05-04 23:37 50.44680 -5.98860 30051 ft 502 kts 252°
2026-05-04 23:37 50.42492 -6.09177 30044 ft 503 kts 252°
2026-05-04 23:38 50.40268 -6.19616 30063 ft 505 kts 252°
2026-05-04 23:38 50.38029 -6.30067 30065 ft 507 kts 252°
2026-05-04 23:39 50.35773 -6.40544 30062 ft 508 kts 252°
2026-05-04 23:39 50.33504 -6.51028 30049 ft 509 kts 252°
2026-05-04 23:40 50.31214 -6.61555 30071 ft 512 kts 252°
2026-05-04 23:40 50.28905 -6.72116 30069 ft 514 kts 252°
2026-05-04 23:41 50.26576 -6.82710 30071 ft 515 kts 252°
2026-05-04 23:41 50.24249 -6.93244 30052 ft 516 kts 252°
2026-05-04 23:42 50.21892 -7.03859 30072 ft 517 kts 252°
2026-05-04 23:42 50.19527 -7.14462 30092 ft 518 kts 252°
2026-05-04 23:43 50.17150 -7.25061 30079 ft 517 kts 251°
2026-05-04 23:43 50.14764 -7.35638 30074 ft 516 kts 252°
2026-05-04 23:44 50.12384 -7.46141 30083 ft 516 kts 252°
2026-05-04 23:44 50.09984 -7.56689 30079 ft 517 kts 252°
2026-05-04 23:45 50.07566 -7.67255 30074 ft 517 kts 252°
2026-05-04 23:45 50.05139 -7.77812 30065 ft 518 kts 252°
2026-05-04 23:46 50.03110 -7.86593 30077 ft 520 kts 252°
2026-05-04 23:46 50.00655 -7.97188 30087 ft 522 kts 252°
2026-05-04 23:47 49.99175 -8.04253 30056 ft 515 kts 263°
2026-05-04 23:47 49.99063 -8.09746 30095 ft 507 kts 283°
2026-05-04 23:47 49.99620 -8.13299 30084 ft 500 kts 296°
2026-05-04 23:47 50.01035 -8.18180 30083 ft 492 kts 296°
2026-05-04 23:48 50.01831 -8.23330 30077 ft 505 kts 277°
2026-05-04 23:48 50.01516 -8.28823 30069 ft 521 kts 257°
2026-05-04 23:48 50.00070 -8.34040 30086 ft 532 kts 238°
2026-05-04 23:48 49.97936 -8.38750 30101 ft 532 kts 238°
2026-05-04 23:49 49.94250 -8.48781 30103 ft 536 kts 247°
2026-05-04 23:49 49.91181 -8.59316 30087 ft 535 kts 249°
2026-05-04 23:50 49.88216 -8.69882 30072 ft 534 kts 250°
2026-05-04 23:50 49.85188 -8.80338 30124 ft 535 kts 249°
2026-05-04 23:51 49.82072 -8.90828 30100 ft 535 kts 248°
2026-05-04 23:51 49.78942 -9.01265 30090 ft 534 kts 248°
2026-05-04 23:52 49.75812 -9.11676 30057 ft 533 kts 249°
2026-05-04 23:52 49.72677 -9.22082 30095 ft 534 kts 249°
2026-05-04 23:53 49.69526 -9.32506 30103 ft 536 kts 249°
2026-05-04 23:53 49.66352 -9.42955 30105 ft 538 kts 249°
2026-05-04 23:54 49.63181 -9.53347 30104 ft 539 kts 249°
2026-05-04 23:54 49.59975 -9.63805 30105 ft 539 kts 248°
2026-05-04 23:55 49.56764 -9.74237 30110 ft 538 kts 248°
2026-05-04 23:56 49.51936 -9.89841 30070 ft 536 kts 248°
2026-05-04 23:56 49.48722 -10.00168 30112 ft 535 kts 249°
2026-05-04 23:57 49.45501 -10.10486 30121 ft 535 kts 249°
2026-05-04 23:57 49.42274 -10.20781 30118 ft 535 kts 248°
2026-05-04 23:58 49.39029 -10.31088 30084 ft 536 kts 248°
2026-05-04 23:58 49.35803 -10.41287 30111 ft 534 kts 248°
2026-05-04 23:59 49.32558 -10.51505 30130 ft 532 kts 248°
2026-05-04 23:59 49.29317 -10.61671 30129 ft 530 kts 248°
2026-05-05 00:00 49.26070 -10.71816 30101 ft 529 kts 248°
2026-05-05 00:00 49.22831 -10.81891 30149 ft 528 kts 248°
2026-05-05 00:01 49.19577 -10.91980 30150 ft 529 kts 248°
2026-05-05 00:01 49.16311 -11.02066 30145 ft 530 kts 248°
2026-05-05 00:02 49.13045 -11.12105 30113 ft 531 kts 248°
2026-05-05 00:02 49.09757 -11.22167 30141 ft 528 kts 248°
2026-05-05 00:03 49.06483 -11.32151 30151 ft 525 kts 248°
2026-05-05 00:03 49.03211 -11.42092 30151 ft 523 kts 248°
2026-05-05 00:04 48.99943 -11.51984 30121 ft 522 kts 248°
2026-05-05 00:04 48.96683 -11.61812 30150 ft 519 kts 248°
2026-05-05 00:05 48.93426 -11.71592 30164 ft 517 kts 248°
2026-05-05 00:05 48.90190 -11.81276 30169 ft 518 kts 248°
2026-05-05 00:06 48.86907 -11.91071 30144 ft 520 kts 247°
2026-05-05 00:06 48.83589 -12.00826 30164 ft 521 kts 245°
2026-05-05 00:07 48.79755 -12.10193 30170 ft 522 kts 242°
2026-05-05 00:07 48.75848 -12.19459 30173 ft 521 kts 242°
2026-05-05 00:08 48.71962 -12.28710 30151 ft 520 kts 242°
2026-05-05 00:08 48.68106 -12.37917 30171 ft 516 kts 242°
2026-05-05 00:09 48.64270 -12.47061 30178 ft 513 kts 242°
2026-05-05 00:09 48.60466 -12.56099 30185 ft 513 kts 242°
2026-05-05 00:10 48.56620 -12.65208 30181 ft 516 kts 242°
2026-05-05 00:10 48.52752 -12.74333 30186 ft 515 kts 241°
2026-05-05 00:11 48.48881 -12.83427 30192 ft 515 kts 241°
2026-05-05 00:11 48.45010 -12.92494 30196 ft 514 kts 241°
2026-05-05 00:12 48.41136 -13.01537 30192 ft 513 kts 241°
2026-05-05 00:12 48.37265 -13.10543 30201 ft 511 kts 241°
2026-05-05 00:13 48.33408 -13.19487 30205 ft 509 kts 241°
2026-05-05 00:13 48.29579 -13.28338 30187 ft 508 kts 241°
2026-05-05 00:14 48.25715 -13.37243 30194 ft 509 kts 241°
2026-05-05 00:14 48.21834 -13.46156 30216 ft 511 kts 241°
2026-05-05 00:15 48.17935 -13.55080 30222 ft 512 kts 240°
2026-05-05 00:15 48.14016 -13.64021 30221 ft 513 kts 240°
2026-05-05 00:16 48.10091 -13.72943 30202 ft 513 kts 240°
2026-05-05 00:16 48.06164 -13.81842 30209 ft 511 kts 240°
2026-05-05 00:17 48.02252 -13.90676 30210 ft 508 kts 240°
2026-05-05 00:17 47.98371 -13.99413 30216 ft 506 kts 240°
2026-05-05 00:18 47.94472 -14.08165 30221 ft 505 kts 240°
2026-05-05 00:18 47.90579 -14.16878 30216 ft 504 kts 240°
2026-05-05 00:19 47.86686 -14.25558 30225 ft 503 kts 239°
2026-05-05 00:19 47.82794 -14.34209 30232 ft 503 kts 239°
2026-05-05 00:20 47.78912 -14.42812 30237 ft 503 kts 239°
2026-05-05 00:20 47.75009 -14.51435 30229 ft 502 kts 239°
2026-05-05 00:21 47.71100 -14.60041 30231 ft 501 kts 239°
2026-05-05 00:21 47.67195 -14.68613 30238 ft 501 kts 239°
2026-05-05 00:22 47.63288 -14.77165 30246 ft 501 kts 239°
2026-05-05 00:22 47.59370 -14.85711 30232 ft 501 kts 239°
2026-05-05 00:23 47.55472 -14.94188 30244 ft 500 kts 239°
2026-05-05 00:23 47.51557 -15.02674 30251 ft 499 kts 239°
2026-05-05 00:24 47.47636 -15.11150 30246 ft 498 kts 239°
2026-05-05 00:24 47.43715 -15.19598 30257 ft 497 kts 238°
2026-05-05 00:25 47.39822 -15.27957 30247 ft 497 kts 238°
2026-05-05 00:25 47.35903 -15.36352 30259 ft 497 kts 238°
2026-05-05 00:26 47.31974 -15.44743 30270 ft 497 kts 238°
2026-05-05 00:26 47.28036 -15.53125 30262 ft 497 kts 238°
2026-05-05 00:27 47.24095 -15.61487 30260 ft 496 kts 238°
2026-05-05 00:27 47.20181 -15.69767 30264 ft 495 kts 238°
2026-05-05 00:28 47.16243 -15.78074 30269 ft 495 kts 238°
2026-05-05 00:28 47.12302 -15.86362 30256 ft 494 kts 237°
2026-05-05 00:29 47.08366 -15.94613 30266 ft 493 kts 237°
2026-05-05 00:29 47.04426 -16.02852 30273 ft 493 kts 237°
2026-05-05 00:30 47.00502 -16.11032 30280 ft 493 kts 237°
2026-05-05 00:30 46.96551 -16.19243 30268 ft 493 kts 237°
2026-05-05 00:31 46.92591 -16.27447 30280 ft 492 kts 237°
2026-05-05 00:31 46.88636 -16.35617 30279 ft 491 kts 237°
2026-05-05 00:32 46.84706 -16.43712 30282 ft 491 kts 237°
2026-05-05 00:32 46.80749 -16.51838 30269 ft 490 kts 237°
2026-05-05 00:33 46.76793 -16.59940 30292 ft 489 kts 237°
2026-05-05 00:33 46.72833 -16.68025 30278 ft 489 kts 237°
2026-05-05 00:34 46.68896 -16.76041 30289 ft 489 kts 237°
2026-05-05 00:34 46.64932 -16.84089 30290 ft 489 kts 237°
2026-05-05 00:35 46.60965 -16.92121 30294 ft 489 kts 237°
2026-05-05 00:35 46.57655 -16.98802 30293 ft 489 kts 236°
2026-05-05 00:36 46.53672 -17.06824 30293 ft 489 kts 236°
2026-05-05 00:36 46.49683 -17.14832 30282 ft 490 kts 236°
2026-05-05 00:37 46.45688 -17.22830 30291 ft 489 kts 236°
2026-05-05 00:37 46.41683 -17.30825 30302 ft 489 kts 236°
2026-05-05 00:38 46.37704 -17.38748 30301 ft 489 kts 236°
2026-05-05 00:38 46.33695 -17.46705 30304 ft 488 kts 236°
2026-05-05 00:39 46.29691 -17.54630 30305 ft 487 kts 236°
2026-05-05 00:39 46.25692 -17.62524 30306 ft 486 kts 236°
2026-05-05 00:40 46.21700 -17.70382 30306 ft 485 kts 236°
2026-05-05 00:40 46.17700 -17.78234 30303 ft 485 kts 236°
2026-05-05 00:41 46.13724 -17.86016 30309 ft 485 kts 236°
2026-05-05 00:41 46.09712 -17.93848 30315 ft 485 kts 236°
2026-05-05 00:42 46.05692 -18.01673 30316 ft 486 kts 236°
2026-05-05 00:42 46.01666 -18.09486 30321 ft 486 kts 236°
2026-05-05 00:43 45.97637 -18.17285 30324 ft 485 kts 235°
2026-05-05 00:43 45.93609 -18.25060 30316 ft 485 kts 235°
2026-05-05 00:44 45.89575 -18.32826 30320 ft 484 kts 235°
2026-05-05 00:44 45.85567 -18.40520 30330 ft 484 kts 235°
2026-05-05 00:45 45.81532 -18.48246 30332 ft 484 kts 235°
2026-05-05 00:45 45.77486 -18.55972 30329 ft 484 kts 235°
2026-05-05 00:46 45.73437 -18.63681 30334 ft 484 kts 235°
2026-05-05 00:46 45.69381 -18.71383 30334 ft 484 kts 235°
2026-05-05 00:47 45.65350 -18.79017 30333 ft 483 kts 234°
2026-05-05 00:47 45.61294 -18.86675 30334 ft 483 kts 234°
2026-05-05 00:48 45.57228 -18.94335 30336 ft 483 kts 234°
2026-05-05 00:48 45.53155 -19.01985 30342 ft 484 kts 234°
2026-05-05 00:49 45.49100 -19.09582 30338 ft 484 kts 234°
2026-05-05 00:49 45.45021 -19.17202 30348 ft 484 kts 234°
2026-05-05 00:50 45.40934 -19.24818 30345 ft 484 kts 234°
2026-05-05 00:50 45.36835 -19.32437 30339 ft 484 kts 234°
2026-05-05 00:51 45.32732 -19.40040 30350 ft 484 kts 234°
2026-05-05 00:51 45.28652 -19.47583 30356 ft 484 kts 234°
2026-05-05 00:52 45.24539 -19.55166 30355 ft 484 kts 234°
2026-05-05 00:52 45.20425 -19.62730 30353 ft 484 kts 234°
2026-05-05 00:53 45.16301 -19.70292 30369 ft 485 kts 234°
2026-05-05 00:53 45.12169 -19.77850 30355 ft 485 kts 233°
2026-05-05 00:54 45.08024 -19.85412 30353 ft 486 kts 233°
2026-05-05 00:54 45.03903 -19.92912 30350 ft 486 kts 233°
2026-05-05 00:55 44.99749 -20.00453 30354 ft 486 kts 234°
2026-05-05 00:55 44.95752 -20.08145 30371 ft 485 kts 236°
2026-05-05 00:56 44.91864 -20.15957 30375 ft 485 kts 236°
2026-05-05 00:56 44.87967 -20.23738 30350 ft 486 kts 236°
2026-05-05 00:57 44.84037 -20.31493 30371 ft 487 kts 236°
2026-05-05 00:57 44.80108 -20.39194 30372 ft 487 kts 236°
2026-05-05 00:58 44.76131 -20.46962 30358 ft 488 kts 236°
2026-05-05 00:58 44.72150 -20.54719 30367 ft 489 kts 236°
2026-05-05 00:59 44.68180 -20.62437 30378 ft 491 kts 236°
2026-05-05 00:59 44.64171 -20.70212 30385 ft 491 kts 236°
2026-05-05 01:00 44.60156 -20.77975 30375 ft 491 kts 236°
2026-05-05 01:00 44.56135 -20.85733 30376 ft 492 kts 236°
2026-05-05 01:01 44.52093 -20.93504 30383 ft 492 kts 236°
2026-05-05 01:01 44.48051 -21.01258 30378 ft 493 kts 236°
2026-05-05 01:02 44.44024 -21.08962 30367 ft 494 kts 236°
2026-05-05 01:02 44.39959 -21.16719 30382 ft 495 kts 236°
2026-05-05 01:03 44.35882 -21.24477 30373 ft 496 kts 236°
2026-05-05 01:03 44.31790 -21.32243 30381 ft 496 kts 235°
2026-05-05 01:04 44.27690 -21.40003 30374 ft 497 kts 236°
2026-05-05 01:04 44.21522 -21.51638 30384 ft 497 kts 235°
2026-05-05 01:05 44.17402 -21.59384 30384 ft 497 kts 235°
2026-05-05 01:05 44.13306 -21.67063 30373 ft 497 kts 235°
2026-05-05 01:06 44.09172 -21.74794 30386 ft 497 kts 235°
2026-05-05 01:06 44.05040 -21.82501 30389 ft 497 kts 235°
2026-05-05 01:07 44.00897 -21.90210 30393 ft 498 kts 235°
2026-05-05 01:07 43.96742 -21.97918 30382 ft 498 kts 235°
2026-05-05 01:08 43.92604 -22.05576 30388 ft 498 kts 235°
2026-05-05 01:08 43.88435 -22.13270 30386 ft 499 kts 235°
2026-05-05 01:09 43.84264 -22.20948 30378 ft 499 kts 235°
2026-05-05 01:09 43.80080 -22.28629 30388 ft 499 kts 235°
2026-05-05 01:10 43.75894 -22.36293 30393 ft 499 kts 235°
2026-05-05 01:10 43.71715 -22.43926 30393 ft 499 kts 235°
2026-05-05 01:11 43.67515 -22.51575 30389 ft 500 kts 235°
2026-05-05 01:11 43.63310 -22.59215 30389 ft 500 kts 235°
2026-05-05 01:12 43.59093 -22.66857 30392 ft 500 kts 235°
2026-05-05 01:12 43.54897 -22.74441 30395 ft 500 kts 235°
2026-05-05 01:13 43.50673 -22.82055 30394 ft 500 kts 234°
2026-05-05 01:13 43.46439 -22.89666 30396 ft 500 kts 234°
2026-05-05 01:14 43.42228 -22.97219 30394 ft 500 kts 234°
2026-05-05 01:14 43.37979 -23.04819 30383 ft 500 kts 234°
2026-05-05 01:15 43.33734 -23.12393 30400 ft 500 kts 234°
2026-05-05 01:15 43.29483 -23.19958 30401 ft 500 kts 234°
2026-05-05 01:16 43.25225 -23.27516 30387 ft 500 kts 234°
2026-05-05 01:16 43.20965 -23.35056 30395 ft 500 kts 234°
2026-05-05 01:17 43.16721 -23.42551 30396 ft 500 kts 234°
2026-05-05 01:17 43.12445 -23.50083 30397 ft 500 kts 234°
2026-05-05 01:18 43.08167 -23.57599 30404 ft 500 kts 234°
2026-05-05 01:18 43.03883 -23.65106 30390 ft 501 kts 234°
2026-05-05 01:19 42.99590 -23.72610 30388 ft 501 kts 234°
2026-05-05 01:19 42.95293 -23.80102 30396 ft 501 kts 234°
2026-05-05 01:20 42.90981 -23.87603 30401 ft 501 kts 234°
2026-05-05 01:20 42.86665 -23.95089 30396 ft 502 kts 234°
2026-05-05 01:21 42.82347 -24.02562 30397 ft 502 kts 234°
2026-05-05 01:21 42.78044 -24.09987 30388 ft 502 kts 234°
2026-05-05 01:22 42.73711 -24.17448 30401 ft 503 kts 234°
2026-05-05 01:22 42.69366 -24.24911 30396 ft 503 kts 234°
2026-05-05 01:23 42.65014 -24.32364 30382 ft 503 kts 234°
2026-05-05 01:23 42.61398 -24.38546 30392 ft 503 kts 234°
2026-05-05 01:24 42.57042 -24.45974 30404 ft 503 kts 234°
2026-05-05 01:24 42.52667 -24.53416 30402 ft 504 kts 234°
2026-05-05 01:25 42.48289 -24.60844 30390 ft 504 kts 234°
2026-05-05 01:25 42.43938 -24.68208 30408 ft 504 kts 234°
2026-05-05 01:26 42.39556 -24.75607 30409 ft 504 kts 234°
2026-05-05 01:26 42.35167 -24.82998 30389 ft 504 kts 234°
2026-05-05 01:27 42.30778 -24.90371 30410 ft 503 kts 234°
2026-05-05 01:27 42.26377 -24.97746 30400 ft 503 kts 234°
2026-05-05 01:28 42.22004 -25.05058 30395 ft 503 kts 234°
2026-05-05 01:28 42.17594 -25.12411 30410 ft 504 kts 233°
2026-05-05 01:29 42.13181 -25.19752 30397 ft 504 kts 233°
2026-05-05 01:29 42.08761 -25.27087 30405 ft 504 kts 233°
2026-05-05 01:30 42.04358 -25.34376 30407 ft 505 kts 233°
2026-05-05 01:30 41.99924 -25.41698 30407 ft 505 kts 233°
2026-05-05 01:31 41.95483 -25.49013 30405 ft 505 kts 233°
2026-05-05 01:31 41.91033 -25.56326 30407 ft 505 kts 233°
2026-05-05 01:32 41.86584 -25.63619 30407 ft 505 kts 233°
2026-05-05 01:32 41.82124 -25.70913 30403 ft 505 kts 233°
2026-05-05 01:33 41.77686 -25.78153 30408 ft 505 kts 233°
2026-05-05 01:33 41.73215 -25.85430 30407 ft 506 kts 233°
2026-05-05 01:34 41.68735 -25.92704 30409 ft 506 kts 233°
2026-05-05 01:34 41.64244 -25.99977 30399 ft 506 kts 233°
2026-05-05 01:35 41.59752 -26.07234 30409 ft 507 kts 233°
2026-05-05 01:35 41.55250 -26.14491 30407 ft 507 kts 232°
2026-05-05 01:36 41.50769 -26.21697 30405 ft 507 kts 232°
2026-05-05 01:36 41.46256 -26.28935 30401 ft 507 kts 232°
2026-05-05 01:37 41.41733 -26.36174 30410 ft 508 kts 232°
2026-05-05 01:37 41.37203 -26.43406 30407 ft 508 kts 232°
2026-05-05 01:38 41.32663 -26.50636 30413 ft 509 kts 232°
2026-05-05 01:38 41.28124 -26.57849 30401 ft 509 kts 232°
2026-05-05 01:39 41.23590 -26.65034 30412 ft 509 kts 232°
2026-05-05 01:39 41.19034 -26.72240 30409 ft 509 kts 232°
2026-05-05 01:40 41.14466 -26.79445 30414 ft 510 kts 232°
2026-05-05 01:40 41.09893 -26.86642 30410 ft 510 kts 232°
2026-05-05 01:41 41.05309 -26.93839 30410 ft 510 kts 232°
2026-05-05 01:41 41.00751 -27.00978 30406 ft 511 kts 232°
2026-05-05 01:42 40.96164 -27.08147 30408 ft 511 kts 232°
2026-05-05 01:42 40.91557 -27.15329 30410 ft 511 kts 232°
2026-05-05 01:43 40.86951 -27.22493 30415 ft 511 kts 232°
2026-05-05 01:43 40.82347 -27.29637 30412 ft 511 kts 232°
2026-05-05 01:44 40.77725 -27.36791 30415 ft 511 kts 232°
2026-05-05 01:44 40.73130 -27.43889 30410 ft 511 kts 232°
2026-05-05 01:45 40.68503 -27.51018 30404 ft 512 kts 232°
2026-05-05 01:45 40.63867 -27.58144 30414 ft 512 kts 232°
2026-05-05 01:46 40.59220 -27.65272 30415 ft 513 kts 232°
2026-05-05 01:46 40.54563 -27.72397 30415 ft 513 kts 232°
2026-05-05 01:47 40.49938 -27.79457 30395 ft 513 kts 232°
2026-05-05 01:47 40.45268 -27.86570 30411 ft 513 kts 232°
2026-05-05 01:48 40.40592 -27.93676 30412 ft 514 kts 232°
2026-05-05 01:48 40.35902 -28.00785 30413 ft 514 kts 232°
2026-05-05 01:49 40.31247 -28.07825 30399 ft 514 kts 232°
2026-05-05 01:49 40.26547 -28.14917 30404 ft 515 kts 232°
2026-05-05 01:50 40.21843 -28.21999 30429 ft 515 kts 232°
2026-05-05 01:50 40.17163 -28.29028 30405 ft 515 kts 232°
2026-05-05 01:51 40.12449 -28.36092 30400 ft 515 kts 232°
2026-05-05 01:51 40.07731 -28.43147 30399 ft 515 kts 232°
2026-05-05 01:52 40.03015 -28.50182 30419 ft 515 kts 232°
2026-05-05 01:52 39.98288 -28.57217 30405 ft 515 kts 232°
2026-05-05 01:53 39.93562 -28.64235 30399 ft 515 kts 232°
2026-05-05 01:53 39.88861 -28.71199 30413 ft 514 kts 232°
2026-05-05 01:54 39.84127 -28.78197 30411 ft 515 kts 232°
2026-05-05 01:54 39.79382 -28.85196 30409 ft 515 kts 232°
2026-05-05 01:55 39.74628 -28.92192 30406 ft 515 kts 232°
2026-05-05 01:55 39.69902 -28.99130 30394 ft 515 kts 232°
2026-05-05 01:56 39.65146 -29.06098 30403 ft 516 kts 232°
2026-05-05 01:56 39.60380 -29.13064 30401 ft 516 kts 232°
2026-05-05 01:57 39.55608 -29.20024 30402 ft 516 kts 232°
2026-05-05 01:57 39.50826 -29.26981 30385 ft 516 kts 232°
2026-05-05 01:58 39.46071 -29.33886 30402 ft 517 kts 232°
2026-05-05 01:58 39.41279 -29.40827 30404 ft 517 kts 232°
2026-05-05 01:59 39.36473 -29.47773 30401 ft 518 kts 232°
2026-05-05 01:59 39.31658 -29.54717 30372 ft 518 kts 232°
2026-05-05 02:00 39.26821 -29.61682 30405 ft 524 kts 232°
2026-05-05 02:00 39.21958 -29.68666 30400 ft 526 kts 232°
2026-05-05 02:01 39.17074 -29.75657 30394 ft 523 kts 232°
2026-05-05 02:01 39.12212 -29.82606 30396 ft 521 kts 232°
2026-05-05 02:02 39.07310 -29.89604 30413 ft 531 kts 233°
2026-05-05 02:02 39.02282 -29.96677 30386 ft 538 kts 229°
2026-05-05 02:03 38.96557 -30.02845 30398 ft 543 kts 218°
2026-05-05 02:03 38.90112 -30.07946 30411 ft 543 kts 214°
2026-05-05 02:04 38.83636 -30.12957 30351 ft 543 kts 215°
2026-05-05 02:04 38.77120 -30.18061 30407 ft 554 kts 215°
2026-05-05 02:05 38.70552 -30.23232 30390 ft 557 kts 215°
2026-05-05 02:05 38.63955 -30.28414 30389 ft 555 kts 215°
2026-05-05 02:06 38.57374 -30.33570 30387 ft 554 kts 215°
2026-05-05 02:06 38.50795 -30.38713 30387 ft 554 kts 215°
2026-05-05 02:07 38.44196 -30.43862 30394 ft 561 kts 215°
2026-05-05 02:07 38.37492 -30.49082 30385 ft 563 kts 215°
2026-05-05 02:08 38.30806 -30.54270 30379 ft 561 kts 215°
2026-05-05 02:08 38.24189 -30.59394 30382 ft 560 kts 215°
2026-05-05 02:09 38.17517 -30.64553 30383 ft 559 kts 215°
2026-05-05 02:09 38.10866 -30.69684 30353 ft 560 kts 215°
2026-05-05 02:10 38.04183 -30.74830 30386 ft 562 kts 215°
2026-05-05 02:10 37.97475 -30.79985 30383 ft 565 kts 215°
2026-05-05 02:11 37.90788 -30.85110 30384 ft 566 kts 215°
2026-05-05 02:11 37.84041 -30.90270 30374 ft 567 kts 215°
2026-05-05 02:12 37.75031 -30.97141 30351 ft 567 kts 215°
2026-05-05 02:13 37.68284 -31.02274 30373 ft 565 kts 216°
2026-05-05 02:13 37.61551 -31.07387 30374 ft 564 kts 216°
2026-05-05 02:14 37.54826 -31.12483 30371 ft 564 kts 216°
2026-05-05 02:14 37.48095 -31.17574 30373 ft 564 kts 215°
2026-05-05 02:15 37.41359 -31.22657 30366 ft 564 kts 215°
2026-05-05 02:15 37.34610 -31.27738 30367 ft 565 kts 215°
2026-05-05 02:16 37.27852 -31.32815 30368 ft 565 kts 215°
2026-05-05 02:16 37.21091 -31.37884 30363 ft 566 kts 215°
2026-05-05 02:17 37.14363 -31.42918 30365 ft 566 kts 215°
2026-05-05 02:17 37.07599 -31.47967 30361 ft 567 kts 215°
2026-05-05 02:18 37.00819 -31.53018 30340 ft 567 kts 215°
2026-05-05 02:18 36.94036 -31.58061 30357 ft 566 kts 216°
2026-05-05 02:19 36.87264 -31.63085 30363 ft 566 kts 215°
2026-05-05 02:19 36.80540 -31.68063 30353 ft 566 kts 216°
2026-05-05 02:20 36.73762 -31.73071 30359 ft 566 kts 215°
2026-05-05 02:20 36.66977 -31.78074 30355 ft 566 kts 215°
2026-05-05 02:21 36.60197 -31.83062 30349 ft 565 kts 215°
2026-05-05 02:21 36.53409 -31.88045 30358 ft 565 kts 215°
2026-05-05 02:22 36.46684 -31.92973 30353 ft 565 kts 215°
2026-05-05 02:22 36.39902 -31.97933 30348 ft 565 kts 215°
2026-05-05 02:23 36.33124 -32.02880 30360 ft 565 kts 215°
2026-05-05 02:23 36.26334 -32.07825 30325 ft 566 kts 215°
2026-05-05 02:24 36.19542 -32.12760 30346 ft 565 kts 215°
2026-05-05 02:24 36.12757 -32.17681 30345 ft 565 kts 215°
2026-05-05 02:25 36.06023 -32.22556 30342 ft 564 kts 215°
2026-05-05 02:25 35.99246 -32.27451 30343 ft 564 kts 215°
2026-05-05 02:26 35.92458 -32.32345 30336 ft 564 kts 215°
2026-05-05 02:26 35.85672 -32.37227 30323 ft 563 kts 215°
2026-05-05 02:27 35.78943 -32.42058 30328 ft 562 kts 215°
2026-05-05 02:27 35.72182 -32.46903 30328 ft 562 kts 215°
2026-05-05 02:28 35.65423 -32.51738 30320 ft 562 kts 215°
2026-05-05 02:28 35.58656 -32.56569 30323 ft 562 kts 214°
2026-05-05 02:29 35.51930 -32.61361 30321 ft 562 kts 214°
2026-05-05 02:29 35.45157 -32.66175 30313 ft 561 kts 214°
2026-05-05 02:30 35.38409 -32.70963 30311 ft 560 kts 214°
2026-05-05 02:30 35.31670 -32.75736 30308 ft 559 kts 214°
2026-05-05 02:31 35.24926 -32.80504 30311 ft 559 kts 214°
2026-05-05 02:31 35.18186 -32.85259 30305 ft 559 kts 214°
2026-05-05 02:32 35.11482 -32.89980 30277 ft 559 kts 214°
2026-05-05 02:32 35.04744 -32.94714 30292 ft 558 kts 214°
2026-05-05 02:33 34.98009 -32.99437 30293 ft 557 kts 214°
2026-05-05 02:33 34.91283 -33.04146 30289 ft 557 kts 214°
2026-05-05 02:34 34.84560 -33.08845 30295 ft 557 kts 214°
2026-05-05 02:34 34.77872 -33.13509 30290 ft 557 kts 214°
2026-05-05 02:35 34.71134 -33.18199 30294 ft 556 kts 214°
2026-05-05 02:35 34.64408 -33.22871 30275 ft 555 kts 214°
2026-05-05 02:36 34.57701 -33.27522 30286 ft 554 kts 214°
2026-05-05 02:36 34.51047 -33.32128 30273 ft 554 kts 214°
2026-05-05 02:37 34.44348 -33.36757 30280 ft 554 kts 214°
2026-05-05 02:37 34.37640 -33.41383 30277 ft 554 kts 214°
2026-05-05 02:38 34.30934 -33.45998 30269 ft 553 kts 214°
2026-05-05 02:38 34.24244 -33.50594 30274 ft 553 kts 214°
2026-05-05 02:39 34.17588 -33.55159 30269 ft 553 kts 214°
2026-05-05 02:39 34.10898 -33.59739 30280 ft 553 kts 214°
2026-05-05 02:40 34.04201 -33.64315 30268 ft 553 kts 214°
2026-05-05 02:40 33.97498 -33.68887 30271 ft 554 kts 214°
2026-05-05 02:41 33.90797 -33.73448 30261 ft 552 kts 214°
2026-05-05 02:41 33.84107 -33.77993 30258 ft 551 kts 214°
2026-05-05 02:42 33.77414 -33.82533 30259 ft 551 kts 213°
2026-05-05 02:42 33.70741 -33.87052 30261 ft 550 kts 213°
2026-05-05 02:43 33.64073 -33.91558 30259 ft 550 kts 213°
2026-05-05 02:43 33.57395 -33.96064 30258 ft 550 kts 213°
2026-05-05 02:44 33.50751 -34.00538 30252 ft 551 kts 213°
2026-05-05 02:44 33.44058 -34.05038 30254 ft 551 kts 213°
2026-05-05 02:45 33.37357 -34.09535 30253 ft 552 kts 213°
2026-05-05 02:45 33.30648 -34.14029 30251 ft 552 kts 213°
2026-05-05 02:46 33.23990 -34.18480 30246 ft 552 kts 213°
2026-05-05 02:46 33.17284 -34.22956 30231 ft 551 kts 213°
2026-05-05 02:47 33.10588 -34.27417 30242 ft 549 kts 213°
2026-05-05 02:47 33.03924 -34.31848 30243 ft 548 kts 213°
2026-05-05 02:48 32.97272 -34.36266 30233 ft 547 kts 213°
2026-05-05 02:48 32.90624 -34.40673 30238 ft 546 kts 213°
2026-05-05 02:49 32.83971 -34.45075 30239 ft 547 kts 213°
2026-05-05 02:49 32.77320 -34.49469 30224 ft 546 kts 213°
2026-05-05 02:50 32.70729 -34.53814 30223 ft 544 kts 213°
2026-05-05 02:50 32.64115 -34.58168 30230 ft 543 kts 213°
2026-05-05 02:51 32.57513 -34.62507 30230 ft 542 kts 213°
2026-05-05 02:51 32.50907 -34.66841 30227 ft 542 kts 213°
2026-05-05 02:52 32.44302 -34.71167 30221 ft 542 kts 213°
2026-05-05 02:52 32.37686 -34.75493 30219 ft 541 kts 213°
2026-05-05 02:53 32.31140 -34.79765 30219 ft 540 kts 213°
2026-05-05 02:53 32.24566 -34.84049 30224 ft 539 kts 213°
2026-05-05 02:54 32.18004 -34.88319 30218 ft 538 kts 213°
2026-05-05 02:54 32.11437 -34.92585 30219 ft 538 kts 213°
2026-05-05 02:55 32.04861 -34.96851 30215 ft 539 kts 213°
2026-05-05 02:55 31.98376 -35.01170 30203 ft 535 kts 217°
2026-05-05 02:56 31.92168 -35.05984 30213 ft 533 kts 218°
2026-05-05 02:56 31.85989 -35.10819 30200 ft 532 kts 218°
2026-05-05 02:57 31.79853 -35.15586 30211 ft 531 kts 218°
2026-05-05 02:57 31.73670 -35.20357 30208 ft 531 kts 218°
2026-05-05 02:58 31.67482 -35.25117 30178 ft 531 kts 218°
2026-05-05 02:58 31.61314 -35.29855 30196 ft 529 kts 217°
2026-05-05 02:59 31.56201 -35.33778 30189 ft 528 kts 217°
2026-05-05 02:59 31.50047 -35.38496 30195 ft 527 kts 217°
2026-05-05 03:00 31.42922 -35.43948 30199 ft 526 kts 217°
2026-05-05 03:00 31.37782 -35.47876 30211 ft 526 kts 217°
2026-05-05 03:01 31.31640 -35.52561 30200 ft 526 kts 217°
2026-05-05 03:01 31.25540 -35.57206 30183 ft 526 kts 217°
2026-05-05 03:02 31.19411 -35.61866 30188 ft 525 kts 217°
2026-05-05 03:02 31.13289 -35.66514 30182 ft 525 kts 217°
2026-05-05 03:03 31.07163 -35.71157 30182 ft 525 kts 217°
2026-05-05 03:03 31.01033 -35.75798 30155 ft 525 kts 217°
2026-05-05 03:04 30.94893 -35.80437 30175 ft 525 kts 217°
2026-05-05 03:04 30.88803 -35.85032 30185 ft 525 kts 217°
2026-05-05 03:05 30.82666 -35.89655 30182 ft 525 kts 217°
2026-05-05 03:05 30.76520 -35.94278 30179 ft 526 kts 217°
2026-05-05 03:06 30.70377 -35.98891 30177 ft 526 kts 217°
2026-05-05 03:06 30.64226 -36.03504 30167 ft 526 kts 217°
2026-05-05 03:07 30.58112 -36.08081 30175 ft 526 kts 217°
2026-05-05 03:07 30.51949 -36.12688 30175 ft 526 kts 217°
2026-05-05 03:08 30.45788 -36.17287 30176 ft 526 kts 216°
2026-05-05 03:08 30.39629 -36.21878 30169 ft 526 kts 216°
2026-05-05 03:09 30.33468 -36.26462 30148 ft 526 kts 216°
2026-05-05 03:09 30.27338 -36.31017 30165 ft 526 kts 216°
2026-05-05 03:10 30.21159 -36.35601 30167 ft 527 kts 216°
2026-05-05 03:10 30.14990 -36.40171 30166 ft 527 kts 216°
2026-05-05 03:11 30.08810 -36.44742 30166 ft 527 kts 216°
2026-05-05 03:11 30.02623 -36.49311 30167 ft 527 kts 216°
2026-05-05 03:12 29.96438 -36.53871 30168 ft 526 kts 216°
2026-05-05 03:12 29.90310 -36.58383 30161 ft 526 kts 216°
2026-05-05 03:13 29.84142 -36.62918 30160 ft 525 kts 216°
2026-05-05 03:13 29.77968 -36.67451 30161 ft 525 kts 216°
2026-05-05 03:14 29.71809 -36.71967 30165 ft 524 kts 216°
2026-05-05 03:14 29.65696 -36.76441 30142 ft 524 kts 216°
2026-05-05 03:15 29.59537 -36.80942 30154 ft 524 kts 216°
2026-05-05 03:15 29.53380 -36.85436 30161 ft 524 kts 216°
2026-05-05 03:16 29.47211 -36.89932 30162 ft 525 kts 216°
2026-05-05 03:16 29.41037 -36.94425 30155 ft 525 kts 216°
2026-05-05 03:17 29.34860 -36.98914 30155 ft 525 kts 216°
2026-05-05 03:17 29.28721 -37.03369 30148 ft 526 kts 216°
2026-05-05 03:18 29.22524 -37.07859 30149 ft 527 kts 216°
2026-05-05 03:18 29.16308 -37.12356 30153 ft 528 kts 216°
2026-05-05 03:19 29.06986 -37.19088 30152 ft 528 kts 216°
2026-05-05 03:19 29.00798 -37.23548 30135 ft 528 kts 216°
2026-05-05 03:20 28.94559 -37.28040 30141 ft 530 kts 216°
2026-05-05 03:20 28.88304 -37.32537 30152 ft 532 kts 216°
2026-05-05 03:21 28.82030 -37.37040 30146 ft 533 kts 215°
2026-05-05 03:21 28.75784 -37.41516 30148 ft 534 kts 215°
2026-05-05 03:22 28.69494 -37.46017 30144 ft 534 kts 215°
2026-05-05 03:22 28.63195 -37.50519 30137 ft 534 kts 215°
2026-05-05 03:23 28.56900 -37.55011 30138 ft 534 kts 215°
2026-05-05 03:23 28.50602 -37.59499 30133 ft 533 kts 215°
2026-05-05 03:24 28.44319 -37.63970 30136 ft 532 kts 215°
2026-05-05 03:24 28.38038 -37.68433 30133 ft 532 kts 215°
2026-05-05 03:25 28.31758 -37.72889 30121 ft 532 kts 214°
2026-05-05 03:25 28.25513 -37.77315 30131 ft 532 kts 214°
2026-05-05 03:26 28.19227 -37.81763 30138 ft 532 kts 214°
2026-05-05 03:26 28.12937 -37.86207 30141 ft 532 kts 214°
2026-05-05 03:27 28.06691 -37.90615 30137 ft 531 kts 214°
2026-05-05 03:27 28.00412 -37.95039 30135 ft 531 kts 214°
2026-05-05 03:28 27.94133 -37.99457 30124 ft 531 kts 214°
2026-05-05 03:28 27.87859 -38.03866 30130 ft 530 kts 214°
2026-05-05 03:29 27.81593 -38.08262 30132 ft 529 kts 214°
2026-05-05 03:29 27.75370 -38.12623 30133 ft 529 kts 214°
2026-05-05 03:30 27.69115 -38.17001 30134 ft 529 kts 214°
2026-05-05 03:30 27.62854 -38.21377 30120 ft 529 kts 214°
2026-05-05 03:31 27.56600 -38.25741 30135 ft 528 kts 214°
2026-05-05 03:31 27.50343 -38.30101 30133 ft 528 kts 214°
2026-05-05 03:32 27.44090 -38.34454 30132 ft 528 kts 214°
2026-05-05 03:32 27.37872 -38.38775 30133 ft 528 kts 214°
2026-05-05 03:33 27.31618 -38.43117 30118 ft 528 kts 214°
2026-05-05 03:33 27.25352 -38.47461 30133 ft 529 kts 214°
2026-05-05 03:34 27.19079 -38.51804 30135 ft 529 kts 214°
2026-05-05 03:34 27.12795 -38.56148 30133 ft 530 kts 214°
2026-05-05 03:35 27.06507 -38.60489 30137 ft 530 kts 214°
2026-05-05 03:35 27.00254 -38.64800 30133 ft 530 kts 213°
2026-05-05 03:36 26.93976 -38.69123 30125 ft 529 kts 213°
2026-05-05 03:36 26.87707 -38.73434 30136 ft 529 kts 213°
2026-05-05 03:37 26.81431 -38.77745 30133 ft 529 kts 213°
2026-05-05 03:37 26.75150 -38.82053 30134 ft 529 kts 213°
2026-05-05 03:38 26.68869 -38.86355 30137 ft 529 kts 213°
2026-05-05 03:38 26.62595 -38.90646 30133 ft 528 kts 213°
2026-05-05 03:39 26.56371 -38.94899 30140 ft 528 kts 213°
2026-05-05 03:39 26.50104 -38.99175 30133 ft 527 kts 213°
2026-05-05 03:40 26.43829 -39.03451 30133 ft 527 kts 213°
2026-05-05 03:40 26.37557 -39.07720 30138 ft 526 kts 213°
2026-05-05 03:41 26.31312 -39.11963 30137 ft 525 kts 213°
2026-05-05 03:41 26.25105 -39.16177 30147 ft 525 kts 213°
2026-05-05 03:42 26.18853 -39.20416 30139 ft 526 kts 213°
2026-05-05 03:42 26.12606 -39.24646 30127 ft 526 kts 213°
2026-05-05 03:43 26.06352 -39.28875 30136 ft 526 kts 213°
2026-05-05 03:43 26.00096 -39.33100 30135 ft 525 kts 213°
2026-05-05 03:44 25.93850 -39.37313 30127 ft 525 kts 213°
2026-05-05 03:44 25.87601 -39.41523 30138 ft 525 kts 213°
2026-05-05 03:45 25.82405 -39.45020 30135 ft 526 kts 213°
2026-05-05 03:45 25.75123 -39.49913 30136 ft 525 kts 213°
2026-05-05 03:46 25.69931 -39.53399 30135 ft 524 kts 213°
2026-05-05 03:46 25.63690 -39.57583 30135 ft 524 kts 213°
2026-05-05 03:47 25.57449 -39.61763 30129 ft 524 kts 212°
2026-05-05 03:47 25.51198 -39.65943 30138 ft 524 kts 212°
2026-05-05 03:48 25.44948 -39.70118 30135 ft 524 kts 212°
2026-05-05 03:48 25.38712 -39.74279 30132 ft 523 kts 212°
2026-05-05 03:49 25.32480 -39.78432 30132 ft 523 kts 212°
2026-05-05 03:49 25.26289 -39.82553 30127 ft 522 kts 212°
2026-05-05 03:50 25.20057 -39.86696 30135 ft 523 kts 212°
2026-05-05 03:50 25.13810 -39.90844 30134 ft 523 kts 212°
2026-05-05 03:51 25.07583 -39.94975 30133 ft 522 kts 212°
2026-05-05 03:51 25.01349 -39.99105 30132 ft 522 kts 212°
2026-05-05 03:52 24.95422 -40.03603 30138 ft 520 kts 218°
2026-05-05 03:52 24.89613 -40.08394 30131 ft 521 kts 218°
2026-05-05 03:53 24.83794 -40.13172 30138 ft 522 kts 218°
2026-05-05 03:53 24.77991 -40.17893 30135 ft 521 kts 218°
2026-05-05 03:54 24.72139 -40.22634 30133 ft 521 kts 218°
2026-05-05 03:54 24.66293 -40.27364 30120 ft 521 kts 218°
2026-05-05 03:55 24.60443 -40.32094 30138 ft 522 kts 218°
2026-05-05 03:55 24.54633 -40.36788 30134 ft 522 kts 218°
2026-05-05 03:56 24.48784 -40.41507 30133 ft 521 kts 218°
2026-05-05 03:56 24.42949 -40.46210 30134 ft 520 kts 218°
2026-05-05 03:57 24.37120 -40.50902 30129 ft 519 kts 218°
2026-05-05 03:57 24.31289 -40.55591 30139 ft 520 kts 217°
2026-05-05 03:58 24.25456 -40.60276 30137 ft 520 kts 217°
2026-05-05 03:58 24.19608 -40.64967 30136 ft 521 kts 217°
2026-05-05 03:59 24.13753 -40.69658 30128 ft 521 kts 217°
2026-05-05 03:59 24.07933 -40.74315 30137 ft 522 kts 217°
2026-05-05 04:00 24.02057 -40.79013 30139 ft 523 kts 217°
2026-05-05 04:00 23.96174 -40.83711 30140 ft 524 kts 217°
2026-05-05 04:01 23.90285 -40.88407 30143 ft 523 kts 217°
2026-05-05 04:01 23.84414 -40.93084 30124 ft 521 kts 217°
2026-05-05 04:02 23.78594 -40.97716 30138 ft 520 kts 217°
2026-05-05 04:02 23.72744 -41.02366 30139 ft 520 kts 217°
2026-05-05 04:03 23.66893 -41.07011 30140 ft 520 kts 217°
2026-05-05 04:03 23.61071 -41.11629 30137 ft 520 kts 217°
2026-05-05 04:04 23.55209 -41.16273 30139 ft 520 kts 217°
2026-05-05 04:04 23.49358 -41.20904 30136 ft 519 kts 217°
2026-05-05 04:05 23.43513 -41.25518 30139 ft 518 kts 216°
2026-05-05 04:05 23.37258 -41.29426 30139 ft 519 kts 205°
2026-05-05 04:06 23.30535 -41.32196 30147 ft 520 kts 200°
2026-05-05 04:06 23.23721 -41.34852 30132 ft 520 kts 200°
2026-05-05 04:07 23.16924 -41.37542 30134 ft 520 kts 200°
2026-05-05 04:07 23.10125 -41.40259 30137 ft 520 kts 201°
2026-05-05 04:08 23.03320 -41.42984 30135 ft 521 kts 201°
2026-05-05 04:08 22.96512 -41.45704 30139 ft 521 kts 201°
2026-05-05 04:09 22.89705 -41.48419 30137 ft 521 kts 201°
2026-05-05 04:09 22.82932 -41.51117 30136 ft 521 kts 201°
2026-05-05 04:10 22.76118 -41.53829 30134 ft 521 kts 201°
2026-05-05 04:10 22.69307 -41.56536 30123 ft 521 kts 200°
2026-05-05 04:11 22.62493 -41.59242 30134 ft 521 kts 200°
2026-05-05 04:11 22.55670 -41.61948 30131 ft 522 kts 200°
2026-05-05 04:12 22.48896 -41.64633 30131 ft 522 kts 200°
2026-05-05 04:12 22.42067 -41.67336 30127 ft 523 kts 200°
2026-05-05 04:13 22.35237 -41.70037 30133 ft 523 kts 200°
2026-05-05 04:13 22.28388 -41.72742 30130 ft 523 kts 200°
2026-05-05 04:14 22.21538 -41.75445 30131 ft 524 kts 200°
2026-05-05 04:14 22.14733 -41.78128 30120 ft 524 kts 200°
2026-05-05 04:15 22.07873 -41.80829 30130 ft 525 kts 200°
2026-05-05 04:15 22.01012 -41.83528 30128 ft 525 kts 200°
2026-05-05 04:16 21.94139 -41.86229 30131 ft 526 kts 200°
2026-05-05 04:16 21.87256 -41.88931 30129 ft 526 kts 200°
2026-05-05 04:17 21.80371 -41.91631 30132 ft 526 kts 200°
2026-05-05 04:17 21.73484 -41.94329 30131 ft 527 kts 200°
2026-05-05 04:18 21.66587 -41.97028 30128 ft 527 kts 200°
2026-05-05 04:18 21.59745 -41.99703 30108 ft 527 kts 200°
2026-05-05 04:19 21.52854 -42.02395 30130 ft 528 kts 200°
2026-05-05 04:19 21.45947 -42.05090 30130 ft 529 kts 200°
2026-05-05 04:20 21.39023 -42.07789 30126 ft 529 kts 200°
2026-05-05 04:20 21.32088 -42.10489 30125 ft 529 kts 200°
2026-05-05 04:21 21.25152 -42.13187 30130 ft 529 kts 200°
2026-05-05 04:21 21.18226 -42.15879 30127 ft 529 kts 200°
2026-05-05 04:22 21.11301 -42.18567 30125 ft 529 kts 200°
2026-05-05 04:22 21.04382 -42.21250 30117 ft 529 kts 200°
2026-05-05 04:23 20.97498 -42.23918 30143 ft 529 kts 200°
2026-05-05 04:23 20.90548 -42.26608 30121 ft 530 kts 200°
2026-05-05 04:24 20.83639 -42.29279 30125 ft 530 kts 200°
2026-05-05 04:25 20.73209 -42.33308 30126 ft 531 kts 200°
2026-05-05 04:25 20.66242 -42.35995 30122 ft 531 kts 200°
2026-05-05 04:26 20.59331 -42.38659 30124 ft 531 kts 200°
2026-05-05 04:26 20.52368 -42.41340 30117 ft 531 kts 200°
2026-05-05 04:27 20.45409 -42.44016 30120 ft 532 kts 200°
2026-05-05 04:27 20.38441 -42.46694 30115 ft 532 kts 200°
2026-05-05 04:28 20.31469 -42.49371 30122 ft 532 kts 200°
2026-05-05 04:28 20.24493 -42.52047 30120 ft 532 kts 200°
2026-05-05 04:29 20.17552 -42.54659 30115 ft 532 kts 197°
2026-05-05 04:29 20.10320 -42.56301 30114 ft 532 kts 185°
2026-05-05 04:30 20.02953 -42.56903 30114 ft 531 kts 184°
2026-05-05 04:30 19.95582 -42.57481 30118 ft 531 kts 184°
2026-05-05 04:31 19.88207 -42.58100 30112 ft 531 kts 184°
2026-05-05 04:31 19.80839 -42.58743 30114 ft 530 kts 184°
2026-05-05 04:32 19.73478 -42.59388 30112 ft 530 kts 184°
2026-05-05 04:32 19.66175 -42.60025 30116 ft 529 kts 184°
2026-05-05 04:33 19.58837 -42.60662 30106 ft 528 kts 184°
2026-05-05 04:33 19.51517 -42.61296 30109 ft 527 kts 184°
2026-05-05 04:34 19.44199 -42.61930 30111 ft 527 kts 184°
2026-05-05 04:34 19.36896 -42.62562 30098 ft 526 kts 184°
2026-05-05 04:35 19.30829 -42.63087 30122 ft 525 kts 184°
2026-05-05 04:35 19.23533 -42.63718 30106 ft 525 kts 184°
2026-05-05 04:36 19.16252 -42.64346 30109 ft 524 kts 184°
2026-05-05 04:36 19.08986 -42.64973 30102 ft 523 kts 184°
2026-05-05 04:37 19.01726 -42.65599 30101 ft 523 kts 184°
2026-05-05 04:37 18.94523 -42.66219 30119 ft 522 kts 184°
2026-05-05 04:38 18.87247 -42.66845 30106 ft 525 kts 184°
2026-05-05 04:38 18.79953 -42.67472 30109 ft 528 kts 184°
2026-05-05 04:39 18.72619 -42.68102 30101 ft 529 kts 184°
2026-05-05 04:39 18.65256 -42.68734 30097 ft 530 kts 184°
2026-05-05 04:40 18.57891 -42.69366 30097 ft 530 kts 184°
2026-05-05 04:40 18.50584 -42.69992 30097 ft 530 kts 184°
2026-05-05 04:41 18.43234 -42.70621 30097 ft 529 kts 184°
2026-05-05 04:41 18.35895 -42.71248 30098 ft 528 kts 184°
2026-05-05 04:42 18.28570 -42.71874 30095 ft 528 kts 184°
2026-05-05 04:42 18.21253 -42.72499 30093 ft 527 kts 184°
2026-05-05 04:43 18.13937 -42.73123 30094 ft 527 kts 184°
2026-05-05 04:43 18.06661 -42.73743 30091 ft 527 kts 184°
2026-05-05 04:44 17.99349 -42.74366 30093 ft 527 kts 184°
2026-05-05 04:44 17.92026 -42.74989 30092 ft 527 kts 184°
2026-05-05 04:45 17.84693 -42.75613 30090 ft 527 kts 184°
2026-05-05 04:45 17.77370 -42.76235 30090 ft 528 kts 184°
2026-05-05 04:46 17.70047 -42.76857 30090 ft 528 kts 184°
2026-05-05 04:46 17.62724 -42.77477 30094 ft 527 kts 185°
2026-05-05 04:47 17.55454 -42.78093 30085 ft 527 kts 185°
2026-05-05 04:47 17.48156 -42.78712 30084 ft 526 kts 185°
2026-05-05 04:48 17.40846 -42.79330 30087 ft 525 kts 185°
2026-05-05 04:48 17.33561 -42.79945 30089 ft 524 kts 185°
2026-05-05 04:49 17.26348 -42.80555 30077 ft 523 kts 185°
2026-05-05 04:49 17.19104 -42.81167 30083 ft 522 kts 185°
2026-05-05 04:50 17.11839 -42.81780 30079 ft 522 kts 185°
2026-05-05 04:50 17.04601 -42.82389 30095 ft 521 kts 185°
2026-05-05 04:51 16.97369 -42.82998 30075 ft 521 kts 185°
2026-05-05 04:51 16.90187 -42.83603 30073 ft 521 kts 185°
2026-05-05 04:52 16.82949 -42.84211 30085 ft 520 kts 185°
2026-05-05 04:52 16.75731 -42.84818 30083 ft 520 kts 185°
2026-05-05 04:53 16.68506 -42.85424 30074 ft 520 kts 185°
2026-05-05 04:53 16.61324 -42.86027 30070 ft 520 kts 185°
2026-05-05 04:54 16.54102 -42.86632 30088 ft 520 kts 185°
2026-05-05 04:54 16.46888 -42.87237 30090 ft 520 kts 185°
2026-05-05 04:55 16.39674 -42.87840 30073 ft 520 kts 185°
2026-05-05 04:55 16.32497 -42.88441 30067 ft 520 kts 185°
2026-05-05 04:56 16.25276 -42.89044 30074 ft 520 kts 185°
2026-05-05 04:56 16.18048 -42.89648 30065 ft 521 kts 185°
2026-05-05 04:57 16.10816 -42.90251 30068 ft 521 kts 185°
2026-05-05 04:57 16.03563 -42.90856 30083 ft 521 kts 185°
2026-05-05 04:58 15.96379 -42.91455 30079 ft 521 kts 185°
2026-05-05 04:58 15.89148 -42.92057 30080 ft 521 kts 185°
2026-05-05 04:59 15.81917 -42.92658 30065 ft 521 kts 185°
2026-05-05 04:59 15.74681 -42.93260 30076 ft 521 kts 185°
2026-05-05 05:00 15.67460 -42.93860 30071 ft 520 kts 185°
2026-05-05 05:00 15.60281 -42.94456 30076 ft 520 kts 185°
2026-05-05 05:01 15.53060 -42.95055 30064 ft 520 kts 185°
2026-05-05 05:01 15.45856 -42.95652 30054 ft 519 kts 186°
2026-05-05 05:02 15.38658 -42.96249 30064 ft 518 kts 185°
2026-05-05 05:02 15.31466 -42.96845 30067 ft 518 kts 185°
2026-05-05 05:03 15.24285 -42.97438 30071 ft 516 kts 186°
2026-05-05 05:03 15.17173 -42.98026 30053 ft 514 kts 186°
2026-05-05 05:04 15.10048 -42.98616 30060 ft 513 kts 186°
2026-05-05 05:04 15.02929 -42.99204 30064 ft 512 kts 186°
2026-05-05 05:05 14.95839 -42.99788 30071 ft 510 kts 187°
2026-05-05 05:05 14.88783 -43.00370 30060 ft 508 kts 187°
2026-05-05 05:06 14.81746 -43.00950 30050 ft 506 kts 187°
2026-05-05 05:06 14.74725 -43.01529 30063 ft 506 kts 187°
2026-05-05 05:07 14.67713 -43.02106 30063 ft 505 kts 187°
2026-05-05 05:07 14.60699 -43.02683 30057 ft 505 kts 187°
2026-05-05 05:08 14.53727 -43.03256 30045 ft 505 kts 186°
2026-05-05 05:08 14.46710 -43.03833 30049 ft 505 kts 186°
2026-05-05 05:09 14.39704 -43.04408 30054 ft 505 kts 186°
2026-05-05 05:09 14.32686 -43.04984 30053 ft 505 kts 186°
2026-05-05 05:10 14.25720 -43.05555 30048 ft 505 kts 186°
2026-05-05 05:10 14.18709 -43.06129 30046 ft 505 kts 186°
2026-05-05 05:11 14.11693 -43.06704 30046 ft 505 kts 186°
2026-05-05 05:11 14.04673 -43.07279 30046 ft 505 kts 186°
2026-05-05 05:12 13.97652 -43.07853 30041 ft 506 kts 186°
2026-05-05 05:12 13.90636 -43.08426 30040 ft 506 kts 187°
2026-05-05 05:13 13.83623 -43.08999 30048 ft 505 kts 187°
2026-05-05 05:13 13.76607 -43.09572 30036 ft 505 kts 187°
2026-05-05 05:14 13.69636 -43.10141 30037 ft 505 kts 187°
2026-05-05 05:14 13.62630 -43.10712 30042 ft 504 kts 187°
2026-05-05 05:15 13.55642 -43.11281 30039 ft 502 kts 187°
2026-05-05 05:15 13.48673 -43.11849 30040 ft 502 kts 187°
2026-05-05 05:16 13.41721 -43.12415 30040 ft 501 kts 187°
2026-05-05 05:16 13.34770 -43.12981 30034 ft 501 kts 187°
2026-05-05 05:17 13.27805 -43.13547 30038 ft 501 kts 187°
2026-05-05 05:17 13.20893 -43.14109 30037 ft 502 kts 187°
2026-05-05 05:18 13.13919 -43.14675 30020 ft 502 kts 187°
2026-05-05 05:18 13.06959 -43.15238 30032 ft 501 kts 188°
2026-05-05 05:19 13.01180 -43.15708 30022 ft 501 kts 188°
2026-05-05 05:19 12.94226 -43.16273 30029 ft 500 kts 188°
2026-05-05 05:20 12.87288 -43.16835 30031 ft 500 kts 188°
2026-05-05 05:20 12.80370 -43.17394 30021 ft 497 kts 189°
2026-05-05 05:21 12.73531 -43.17947 30018 ft 495 kts 189°
2026-05-05 05:21 12.66680 -43.18502 30024 ft 493 kts 189°
2026-05-05 05:22 12.59846 -43.19055 30019 ft 492 kts 189°
2026-05-05 05:22 12.53024 -43.19607 30025 ft 491 kts 189°
2026-05-05 05:23 12.46210 -43.20157 30023 ft 490 kts 189°
2026-05-05 05:23 12.39400 -43.20707 30024 ft 490 kts 189°
2026-05-05 05:24 12.32593 -43.21257 30020 ft 491 kts 189°
2026-05-05 05:24 12.25774 -43.21807 30016 ft 490 kts 189°
2026-05-05 05:25 12.19006 -43.22352 30017 ft 490 kts 189°
2026-05-05 05:25 12.12200 -43.22900 30016 ft 490 kts 189°
2026-05-05 05:26 12.05382 -43.23449 30005 ft 490 kts 189°
2026-05-05 05:26 11.98582 -43.23997 30016 ft 490 kts 189°
2026-05-05 05:27 11.91772 -43.24544 30013 ft 490 kts 189°
2026-05-05 05:27 11.81624 -43.25360 30013 ft 490 kts 189°
2026-05-05 05:28 11.74827 -43.25907 30012 ft 490 kts 189°
2026-05-05 05:28 11.68021 -43.26453 30014 ft 490 kts 189°
2026-05-05 05:29 11.61227 -43.27023 30013 ft 489 kts 190°
2026-05-05 05:29 11.54460 -43.27773 30013 ft 488 kts 191°
2026-05-05 05:30 11.47751 -43.28568 30010 ft 489 kts 191°
2026-05-05 05:30 11.40982 -43.29351 30017 ft 489 kts 191°
2026-05-05 05:31 11.34208 -43.30116 30016 ft 490 kts 191°
2026-05-05 05:31 11.27419 -43.30876 30008 ft 490 kts 191°
2026-05-05 05:32 11.20626 -43.31636 30001 ft 491 kts 190°
2026-05-05 05:32 11.13875 -43.32392 30011 ft 491 kts 191°
2026-05-05 05:33 11.07069 -43.33154 30007 ft 491 kts 191°
2026-05-05 05:33 11.00248 -43.33918 30007 ft 492 kts 191°
2026-05-05 05:34 10.93476 -43.34676 30001 ft 492 kts 190°
2026-05-05 05:34 10.86664 -43.35438 30007 ft 492 kts 190°
2026-05-05 05:35 10.79842 -43.36201 30011 ft 493 kts 190°
2026-05-05 05:35 10.73026 -43.36962 30004 ft 493 kts 190°
2026-05-05 05:36 10.66244 -43.37720 30006 ft 493 kts 190°
2026-05-05 05:36 10.59425 -43.38481 30005 ft 493 kts 190°
2026-05-05 05:37 10.52610 -43.39242 30007 ft 492 kts 190°
2026-05-05 05:37 10.45795 -43.40002 30007 ft 492 kts 190°
2026-05-05 05:38 10.38981 -43.40762 30003 ft 493 kts 190°
2026-05-05 05:38 10.32164 -43.41522 30005 ft 494 kts 190°
2026-05-05 05:39 10.25327 -43.42284 30008 ft 494 kts 190°
2026-05-05 05:39 10.18522 -43.43042 30003 ft 495 kts 190°
2026-05-05 05:40 10.11660 -43.43805 29996 ft 496 kts 191°
2026-05-05 05:40 10.04784 -43.44571 29993 ft 496 kts 191°
2026-05-05 05:41 9.97911 -43.45335 30009 ft 497 kts 191°
2026-05-05 05:41 9.91035 -43.46099 30006 ft 497 kts 191°
2026-05-05 05:42 9.84201 -43.46858 29998 ft 497 kts 191°
2026-05-05 05:42 9.77321 -43.47623 29997 ft 496 kts 191°
2026-05-05 05:43 9.70455 -43.48385 29992 ft 496 kts 191°
2026-05-05 05:43 9.63595 -43.49147 29998 ft 496 kts 191°
2026-05-05 05:44 9.56780 -43.49903 30000 ft 495 kts 191°
2026-05-05 05:44 9.49931 -43.50662 29993 ft 494 kts 191°
2026-05-05 05:45 9.43082 -43.51421 29996 ft 494 kts 191°
2026-05-05 05:45 9.36252 -43.52178 29998 ft 493 kts 191°
2026-05-05 05:46 9.29461 -43.52930 29990 ft 492 kts 191°
2026-05-05 05:46 9.22636 -43.53686 29993 ft 491 kts 191°
2026-05-05 05:47 9.15833 -43.54439 29997 ft 491 kts 191°
2026-05-05 05:47 9.09086 -43.55186 29992 ft 490 kts 191°
2026-05-05 05:48 9.02282 -43.55939 29992 ft 491 kts 191°
2026-05-05 05:48 8.95478 -43.56691 29994 ft 492 kts 191°
2026-05-05 05:49 8.88673 -43.57443 29990 ft 493 kts 191°
2026-05-05 05:49 8.81850 -43.58197 29991 ft 493 kts 191°
2026-05-05 05:50 8.75018 -43.58952 29986 ft 494 kts 190°
2026-05-05 05:50 8.68225 -43.59701 29991 ft 495 kts 190°
2026-05-05 05:51 8.61378 -43.60457 29984 ft 495 kts 190°
2026-05-05 05:51 8.54511 -43.61214 29987 ft 495 kts 190°
2026-05-05 05:52 8.47654 -43.61970 29975 ft 496 kts 189°
2026-05-05 05:52 8.40787 -43.62727 29982 ft 496 kts 189°
2026-05-05 05:53 8.33913 -43.63485 29982 ft 497 kts 189°
2026-05-05 05:53 8.27078 -43.64237 29979 ft 497 kts 189°
2026-05-05 05:54 8.20162 -43.64998 29973 ft 496 kts 189°
2026-05-05 05:54 8.13338 -43.65749 29982 ft 496 kts 189°
2026-05-05 05:55 8.06459 -43.66506 29980 ft 496 kts 189°
2026-05-05 05:55 7.99587 -43.67262 29977 ft 496 kts 189°
2026-05-05 05:56 7.92726 -43.68017 29981 ft 496 kts 189°
2026-05-05 05:56 7.85855 -43.68772 29978 ft 496 kts 189°
2026-05-05 05:57 7.78998 -43.69525 29975 ft 496 kts 189°
2026-05-05 05:57 7.72136 -43.70279 29975 ft 496 kts 189°
2026-05-05 05:58 7.65321 -43.71029 29971 ft 495 kts 188°
2026-05-05 05:58 7.58494 -43.71777 29968 ft 493 kts 187°
2026-05-05 05:59 7.51687 -43.72523 29971 ft 491 kts 187°
2026-05-05 05:59 7.44902 -43.73268 29970 ft 490 kts 187°
2026-05-05 06:00 7.38117 -43.74013 29982 ft 489 kts 187°
2026-05-05 06:00 7.31388 -43.74750 29973 ft 487 kts 187°
2026-05-05 06:01 7.24647 -43.75489 29966 ft 486 kts 187°
2026-05-05 06:01 7.17917 -43.76226 29968 ft 486 kts 187°
2026-05-05 06:02 7.11192 -43.76963 29972 ft 486 kts 187°
2026-05-05 06:02 7.04466 -43.77700 29965 ft 486 kts 187°
2026-05-05 06:03 6.97790 -43.78431 29968 ft 486 kts 187°
2026-05-05 06:03 6.91068 -43.79166 29969 ft 486 kts 187°
2026-05-05 06:04 6.84351 -43.79902 29966 ft 486 kts 186°
2026-05-05 06:04 6.77628 -43.80637 29967 ft 486 kts 186°
2026-05-05 06:05 6.72040 -43.81248 29968 ft 486 kts 186°
2026-05-05 06:05 6.65309 -43.81984 29967 ft 486 kts 186°
2026-05-05 06:06 6.57498 -43.82838 29967 ft 486 kts 186°
2026-05-05 06:06 6.51859 -43.83454 29965 ft 486 kts 186°
2026-05-05 06:07 6.45179 -43.84183 29965 ft 486 kts 186°
2026-05-05 06:07 6.38448 -43.84919 29965 ft 486 kts 186°
2026-05-05 06:08 6.31715 -43.85654 29963 ft 486 kts 186°
2026-05-05 06:08 6.24988 -43.86388 29963 ft 486 kts 186°
2026-05-05 06:09 6.18244 -43.87124 29966 ft 486 kts 186°
2026-05-05 06:09 6.11555 -43.87854 29960 ft 487 kts 186°
2026-05-05 06:10 6.04806 -43.88590 29965 ft 487 kts 186°
2026-05-05 06:10 5.98056 -43.89326 29957 ft 488 kts 186°
2026-05-05 06:11 5.91349 -43.90057 29959 ft 488 kts 186°
2026-05-05 06:11 5.84587 -43.90794 29961 ft 487 kts 186°
2026-05-05 06:12 5.77837 -43.91530 29957 ft 487 kts 186°
2026-05-05 06:12 5.71130 -43.92260 29956 ft 487 kts 186°
2026-05-05 06:13 5.64382 -43.92995 29959 ft 488 kts 186°
2026-05-05 06:13 5.57617 -43.93732 29954 ft 489 kts 186°
2026-05-05 06:14 5.50845 -43.94469 29954 ft 489 kts 186°
2026-05-05 06:14 5.44116 -43.95202 29953 ft 489 kts 186°
2026-05-05 06:15 5.37348 -43.95938 29952 ft 490 kts 186°
2026-05-05 06:15 5.30567 -43.96676 29953 ft 490 kts 186°
2026-05-05 06:16 5.23795 -43.97412 29950 ft 490 kts 186°
2026-05-05 06:16 5.17013 -43.98150 29951 ft 490 kts 186°
2026-05-05 06:17 5.10224 -43.98888 29951 ft 489 kts 186°
2026-05-05 06:17 5.03455 -43.99624 29949 ft 489 kts 186°
2026-05-05 06:18 4.96699 -44.00078 29954 ft 490 kts 180°
2026-05-05 06:18 4.89876 -44.00046 29951 ft 490 kts 180°
2026-05-05 06:19 4.83045 -44.00010 29953 ft 491 kts 180°
2026-05-05 06:19 4.76196 -43.99997 29955 ft 491 kts 180°
2026-05-05 06:20 4.69361 -43.99997 29948 ft 491 kts 180°
2026-05-05 06:20 4.62534 -43.99999 29946 ft 490 kts 180°
2026-05-05 06:21 4.55752 -44.00000 29954 ft 491 kts 180°
2026-05-05 06:21 4.48912 -44.00000 29951 ft 492 kts 180°
2026-05-05 06:22 4.42066 -44.00000 29950 ft 492 kts 180°
2026-05-05 06:22 4.35223 -44.00000 29949 ft 491 kts 180°
2026-05-05 06:23 4.28370 -44.00000 29959 ft 491 kts 180°
2026-05-05 06:23 4.21536 -44.00000 29953 ft 491 kts 180°
2026-05-05 06:24 4.14743 -44.00000 29946 ft 491 kts 180°
2026-05-05 06:24 4.07904 -44.00000 29957 ft 491 kts 180°
2026-05-05 06:25 4.01073 -44.00000 29944 ft 490 kts 180°
2026-05-05 06:25 3.94241 -44.00000 29955 ft 491 kts 180°
2026-05-05 06:26 3.87415 -44.00000 29944 ft 491 kts 180°
2026-05-05 06:26 3.80580 -44.00000 29949 ft 491 kts 180°
2026-05-05 06:27 3.70365 -44.00000 29952 ft 491 kts 180°
2026-05-05 06:28 3.63526 -44.00000 29936 ft 491 kts 180°
2026-05-05 06:28 3.56678 -44.00000 29952 ft 491 kts 180°
2026-05-05 06:29 3.49842 -44.00000 29939 ft 491 kts 180°
2026-05-05 06:29 3.43044 -44.00000 29948 ft 491 kts 180°
2026-05-05 06:30 3.36206 -44.00000 29936 ft 492 kts 180°
2026-05-05 06:30 3.29353 -44.00000 29946 ft 491 kts 180°
2026-05-05 06:31 3.22500 -44.00000 29951 ft 491 kts 180°
2026-05-05 06:31 3.15703 -44.00000 29939 ft 491 kts 180°
2026-05-05 06:32 3.08864 -44.00000 29946 ft 491 kts 180°
2026-05-05 06:32 3.02019 -44.00000 29941 ft 491 kts 180°
2026-05-05 06:33 2.95178 -44.00000 29947 ft 491 kts 180°
2026-05-05 06:33 2.88339 -44.00000 29940 ft 492 kts 180°
2026-05-05 06:34 2.81531 -44.00000 29949 ft 492 kts 180°
2026-05-05 06:34 2.74644 -44.00000 29937 ft 492 kts 180°
2026-05-05 06:35 2.67846 -44.00000 29940 ft 491 kts 180°
2026-05-05 06:35 2.61017 -44.00000 29937 ft 490 kts 180°
2026-05-05 06:36 2.54193 -44.00000 29943 ft 490 kts 180°
2026-05-05 06:36 2.47373 -44.00000 29943 ft 490 kts 180°
2026-05-05 06:37 2.40555 -44.00000 29932 ft 490 kts 180°
2026-05-05 06:37 2.33725 -44.00000 29935 ft 490 kts 180°
2026-05-05 06:38 2.26938 -44.00000 29937 ft 490 kts 180°
2026-05-05 06:38 2.20110 -44.00000 29944 ft 490 kts 180°
2026-05-05 06:39 2.13284 -44.00000 29935 ft 490 kts 180°
2026-05-05 06:39 2.06465 -44.00000 29941 ft 489 kts 180°
2026-05-05 06:40 1.99643 -44.00000 29937 ft 489 kts 180°
2026-05-05 06:40 1.92833 -44.00000 29942 ft 489 kts 180°
2026-05-05 06:41 1.86022 -44.00000 29935 ft 490 kts 180°
2026-05-05 06:41 1.79245 -44.00000 29935 ft 490 kts 180°
2026-05-05 06:42 1.72423 -44.00000 29942 ft 490 kts 180°
2026-05-05 06:42 1.65600 -44.00000 29935 ft 490 kts 180°
2026-05-05 06:43 1.58773 -44.00000 29939 ft 491 kts 180°
2026-05-05 06:43 1.51945 -44.00000 29936 ft 491 kts 180°
2026-05-05 06:44 1.45104 -44.00000 29946 ft 491 kts 180°
2026-05-05 06:44 1.38266 -44.00000 29937 ft 491 kts 180°
2026-05-05 06:45 1.31427 -44.00000 29939 ft 491 kts 179°
2026-05-05 06:45 1.24626 -44.00000 29937 ft 492 kts 179°
2026-05-05 06:46 1.17771 -44.00000 29941 ft 492 kts 179°
2026-05-05 06:46 1.10907 -44.00000 29939 ft 492 kts 179°
2026-05-05 06:47 1.04052 -44.00000 29937 ft 492 kts 179°
2026-05-05 06:47 0.97242 -44.00131 29934 ft 492 kts 183°
2026-05-05 06:48 0.90406 -44.00592 29939 ft 492 kts 184°
2026-05-05 06:48 0.83566 -44.01083 29940 ft 492 kts 183°
2026-05-05 06:49 0.76718 -44.01556 29935 ft 492 kts 183°
2026-05-05 06:49 0.69877 -44.02016 29938 ft 492 kts 183°
2026-05-05 06:50 0.63078 -44.02469 29943 ft 492 kts 183°
2026-05-05 06:50 0.56239 -44.02925 29939 ft 492 kts 183°
2026-05-05 06:51 0.49391 -44.03382 29938 ft 493 kts 183°
2026-05-05 06:51 0.42539 -44.03840 29941 ft 494 kts 183°
2026-05-05 06:52 0.35675 -44.04299 29939 ft 494 kts 183°
2026-05-05 06:52 0.28807 -44.04758 29939 ft 494 kts 183°
2026-05-05 06:53 0.21942 -44.05217 29936 ft 494 kts 183°
2026-05-05 06:53 0.15113 -44.05674 29942 ft 494 kts 183°
2026-05-05 06:54 0.08250 -44.06132 29942 ft 494 kts 183°
2026-05-05 06:54 0.02496 -44.06517 29942 ft 494 kts 183°
2026-05-05 06:55 -0.04332 -44.06974 29929 ft 494 kts 182°
2026-05-05 06:55 -0.11193 -44.07432 29941 ft 494 kts 182°
2026-05-05 06:56 -0.18056 -44.07890 29940 ft 494 kts 182°
2026-05-05 06:56 -0.24924 -44.08349 29940 ft 494 kts 182°
2026-05-05 06:57 -0.31788 -44.08808 29936 ft 494 kts 182°
2026-05-05 06:57 -0.38613 -44.09264 29941 ft 494 kts 182°
2026-05-05 06:58 -0.45479 -44.09723 29942 ft 494 kts 182°
2026-05-05 06:58 -0.52338 -44.10182 29943 ft 494 kts 182°
2026-05-05 06:59 -0.59208 -44.10641 29942 ft 495 kts 183°
2026-05-05 06:59 -0.66097 -44.11101 29944 ft 496 kts 183°
2026-05-05 07:00 -0.72999 -44.11563 29944 ft 497 kts 182°
2026-05-05 07:00 -0.79863 -44.12022 29942 ft 497 kts 183°
2026-05-05 07:01 -0.86805 -44.12485 29950 ft 496 kts 184°
2026-05-05 07:01 -0.93673 -44.12945 29939 ft 497 kts 184°
2026-05-05 07:02 -1.00588 -44.13408 29937 ft 497 kts 184°
2026-05-05 07:02 -1.07499 -44.13870 29943 ft 497 kts 184°
2026-05-05 07:03 -1.14365 -44.14329 29940 ft 499 kts 184°
2026-05-05 07:03 -1.21303 -44.14792 29947 ft 500 kts 184°
2026-05-05 07:04 -1.28254 -44.15257 29936 ft 501 kts 184°
2026-05-05 07:04 -1.35198 -44.15722 29943 ft 499 kts 184°
2026-05-05 07:05 -1.42145 -44.16186 29940 ft 500 kts 184°
2026-05-05 07:05 -1.49057 -44.16649 29944 ft 501 kts 184°
2026-05-05 07:06 -1.56025 -44.17114 29942 ft 502 kts 184°
2026-05-05 07:06 -1.62992 -44.17581 29939 ft 502 kts 183°
2026-05-05 07:07 -1.69983 -44.18048 29946 ft 502 kts 183°
2026-05-05 07:07 -1.76953 -44.18514 29940 ft 502 kts 183°
2026-05-05 07:08 -1.83919 -44.18981 29942 ft 501 kts 183°
2026-05-05 07:08 -1.90889 -44.19447 29939 ft 502 kts 183°
2026-05-05 07:09 -1.97847 -44.19913 29940 ft 501 kts 183°
2026-05-05 07:09 -2.04754 -44.20375 29943 ft 500 kts 183°
2026-05-05 07:10 -2.11707 -44.20840 29938 ft 500 kts 183°
2026-05-05 07:10 -2.18657 -44.21305 29945 ft 500 kts 183°
2026-05-05 07:11 -2.25611 -44.21770 29939 ft 501 kts 184°
2026-05-05 07:11 -2.32572 -44.22237 29947 ft 502 kts 184°
2026-05-05 07:12 -2.39550 -44.22704 29940 ft 502 kts 184°
2026-05-05 07:12 -2.46484 -44.23168 29943 ft 502 kts 184°
2026-05-05 07:13 -2.53462 -44.23636 29937 ft 502 kts 184°
2026-05-05 07:13 -2.60408 -44.24393 29947 ft 502 kts 191°
2026-05-05 07:14 -2.67152 -44.26195 29947 ft 502 kts 196°
2026-05-05 07:14 -2.73873 -44.28112 29943 ft 502 kts 195°
2026-05-05 07:15 -2.80568 -44.29982 29941 ft 502 kts 195°
2026-05-05 07:15 -2.87308 -44.31842 29942 ft 502 kts 195°
2026-05-05 07:16 -2.94052 -44.33700 29943 ft 502 kts 195°
2026-05-05 07:16 -3.00801 -44.35563 29942 ft 502 kts 195°
2026-05-05 07:17 -3.07495 -44.37412 29942 ft 502 kts 195°
2026-05-05 07:17 -3.14234 -44.39273 29943 ft 502 kts 195°
2026-05-05 07:18 -3.20969 -44.41134 29943 ft 502 kts 195°
2026-05-05 07:18 -3.27708 -44.42996 29942 ft 502 kts 195°
2026-05-05 07:19 -3.34449 -44.44857 29943 ft 502 kts 195°
2026-05-05 07:19 -3.41151 -44.46697 29942 ft 502 kts 195°
2026-05-05 07:20 -3.47890 -44.48547 29943 ft 502 kts 195°
2026-05-05 07:20 -3.54634 -44.50401 29942 ft 502 kts 196°
2026-05-05 07:21 -3.61380 -44.52256 29942 ft 502 kts 196°
2026-05-05 07:21 -3.68081 -44.54115 29942 ft 502 kts 196°
2026-05-05 07:22 -3.74822 -44.56000 29943 ft 502 kts 196°
2026-05-05 07:22 -3.81563 -44.57883 29943 ft 502 kts 196°
2026-05-05 07:23 -3.88289 -44.59759 29942 ft 502 kts 196°
2026-05-05 07:23 -3.95034 -44.61591 29944 ft 501 kts 195°
2026-05-05 07:24 -4.01811 -44.63271 29946 ft 501 kts 194°
2026-05-05 07:24 -4.08584 -44.64943 29950 ft 501 kts 194°
2026-05-05 07:25 -4.15312 -44.66629 29944 ft 501 kts 194°
2026-05-05 07:25 -4.22071 -44.68331 29945 ft 500 kts 194°
2026-05-05 07:26 -4.28837 -44.70033 29945 ft 500 kts 194°
2026-05-05 07:26 -4.35558 -44.71848 29942 ft 500 kts 196°
2026-05-05 07:27 -4.42255 -44.73771 29950 ft 501 kts 196°
2026-05-05 07:27 -4.48924 -44.75680 29947 ft 502 kts 196°
2026-05-05 07:28 -4.55651 -44.77585 29949 ft 502 kts 196°
2026-05-05 07:28 -4.62382 -44.79482 29945 ft 503 kts 196°
2026-05-05 07:29 -4.69116 -44.81379 29946 ft 503 kts 196°
2026-05-05 07:29 -4.75854 -44.83280 29951 ft 503 kts 196°
2026-05-05 07:30 -4.82589 -44.85180 29951 ft 503 kts 196°
2026-05-05 07:30 -4.92696 -44.88033 29952 ft 502 kts 195°
2026-05-05 07:31 -4.99422 -44.89932 29949 ft 502 kts 195°
2026-05-05 07:31 -5.06141 -44.91829 29951 ft 501 kts 195°
2026-05-05 07:32 -5.12851 -44.93725 29956 ft 501 kts 195°
2026-05-05 07:32 -5.19514 -44.95607 29956 ft 500 kts 195°
2026-05-05 07:33 -5.26218 -44.97501 29952 ft 500 kts 195°
2026-05-05 07:33 -5.32914 -44.99394 29953 ft 500 kts 195°
2026-05-05 07:34 -5.39577 -45.01277 29964 ft 500 kts 195°
2026-05-05 07:34 -5.46287 -45.03175 29954 ft 500 kts 195°
2026-05-05 07:35 -5.52983 -45.05068 29957 ft 499 kts 195°
2026-05-05 07:35 -5.59673 -45.06961 29957 ft 499 kts 195°
2026-05-05 07:36 -5.66361 -45.08854 29953 ft 499 kts 195°
2026-05-05 07:36 -5.73020 -45.10739 29959 ft 499 kts 195°
2026-05-05 07:37 -5.79724 -45.12637 29958 ft 499 kts 195°
2026-05-05 07:37 -5.86416 -45.14532 29961 ft 499 kts 195°
2026-05-05 07:38 -5.93107 -45.16427 29962 ft 499 kts 195°
2026-05-05 07:38 -5.99806 -45.18306 29964 ft 500 kts 195°
2026-05-05 07:39 -6.06461 -45.20167 29967 ft 500 kts 195°
2026-05-05 07:39 -6.13161 -45.22044 29968 ft 500 kts 195°
2026-05-05 07:40 -6.19866 -45.23925 29975 ft 500 kts 195°
2026-05-05 07:40 -6.26565 -45.25792 29974 ft 499 kts 195°
2026-05-05 07:41 -6.33270 -45.27644 29978 ft 499 kts 195°
2026-05-05 07:41 -6.39963 -45.29493 29980 ft 499 kts 195°
2026-05-05 07:42 -6.45521 -45.31032 29980 ft 498 kts 195°
2026-05-05 07:42 -6.53293 -45.33185 29991 ft 498 kts 195°
2026-05-05 07:43 -6.59968 -45.35036 29985 ft 497 kts 195°
2026-05-05 07:43 -6.65513 -45.36573 29990 ft 496 kts 195°
2026-05-05 07:44 -6.72174 -45.38420 29984 ft 496 kts 195°
2026-05-05 07:44 -6.78830 -45.40267 29984 ft 495 kts 195°
2026-05-05 07:45 -6.85469 -45.42110 29981 ft 494 kts 194°
2026-05-05 07:45 -6.92057 -45.43938 29980 ft 493 kts 194°
2026-05-05 07:46 -6.98687 -45.45778 29985 ft 493 kts 194°
2026-05-05 07:46 -7.05309 -45.47617 29982 ft 493 kts 195°
2026-05-05 07:47 -7.11920 -45.49454 29979 ft 492 kts 195°
2026-05-05 07:47 -7.18509 -45.51285 29979 ft 491 kts 195°
2026-05-05 07:48 -7.25049 -45.53103 29977 ft 490 kts 195°
2026-05-05 07:48 -7.31620 -45.54930 29977 ft 490 kts 195°
2026-05-05 07:49 -7.38197 -45.56760 29982 ft 489 kts 195°
2026-05-05 07:49 -7.44758 -45.58585 29977 ft 489 kts 195°
2026-05-05 07:50 -7.51327 -45.60413 29986 ft 489 kts 195°
2026-05-05 07:50 -7.57893 -45.62241 29986 ft 489 kts 195°
2026-05-05 07:51 -7.64470 -45.64073 29986 ft 489 kts 195°
2026-05-05 07:51 -7.71032 -45.65901 29986 ft 490 kts 195°
2026-05-05 07:52 -7.77561 -45.67721 29991 ft 490 kts 195°
2026-05-05 07:52 -7.84133 -45.69553 29992 ft 490 kts 195°
2026-05-05 07:53 -7.90706 -45.71386 29997 ft 490 kts 195°
2026-05-05 07:53 -7.97272 -45.73217 29992 ft 489 kts 195°
2026-05-05 07:54 -8.03837 -45.75050 29995 ft 488 kts 195°
2026-05-05 07:54 -8.10392 -45.76880 30000 ft 488 kts 195°
2026-05-05 07:55 -8.16934 -45.78712 30010 ft 488 kts 195°
2026-05-05 07:55 -8.23456 -45.80577 30004 ft 487 kts 195°
2026-05-05 07:56 -8.29913 -45.82433 30002 ft 485 kts 195°
2026-05-05 07:56 -8.36411 -45.84296 30008 ft 485 kts 195°
2026-05-05 07:57 -8.42894 -45.86153 30009 ft 485 kts 195°
2026-05-05 07:57 -8.49381 -45.88012 30007 ft 485 kts 195°
2026-05-05 07:58 -8.55880 -45.89874 30007 ft 485 kts 195°
2026-05-05 07:58 -8.62386 -45.91739 30008 ft 485 kts 195°
2026-05-05 07:59 -8.68887 -45.93603 30012 ft 486 kts 195°
2026-05-05 07:59 -8.75350 -45.95458 30016 ft 486 kts 195°
2026-05-05 08:00 -8.81865 -45.97328 30008 ft 486 kts 195°
2026-05-05 08:00 -8.88360 -45.99193 30016 ft 485 kts 195°
2026-05-05 08:01 -8.94856 -46.01058 30016 ft 485 kts 195°
2026-05-05 08:01 -9.01349 -46.02924 30018 ft 484 kts 196°
2026-05-05 08:02 -9.07838 -46.04790 30014 ft 484 kts 196°
2026-05-05 08:02 -9.14287 -46.06640 30016 ft 484 kts 196°
2026-05-05 08:03 -9.20779 -46.08484 30018 ft 484 kts 195°
2026-05-05 08:03 -9.27266 -46.10325 30017 ft 484 kts 195°
2026-05-05 08:04 -9.33757 -46.12171 30022 ft 484 kts 196°
2026-05-05 08:04 -9.40244 -46.14017 30017 ft 484 kts 196°
2026-05-05 08:05 -9.46686 -46.15852 30024 ft 484 kts 196°
2026-05-05 08:05 -9.53170 -46.17700 30023 ft 483 kts 196°
2026-05-05 08:06 -9.59643 -46.19545 30016 ft 483 kts 196°
2026-05-05 08:06 -9.66109 -46.21388 30021 ft 482 kts 196°
2026-05-05 08:07 -9.72576 -46.23233 30026 ft 482 kts 196°
2026-05-05 08:07 -9.79027 -46.25074 30025 ft 482 kts 196°
2026-05-05 08:08 -9.85477 -46.26916 30031 ft 481 kts 196°
2026-05-05 08:08 -9.91897 -46.28750 30025 ft 481 kts 196°
2026-05-05 08:09 -9.98352 -46.30594 30034 ft 481 kts 196°
2026-05-05 08:09 -10.04801 -46.32438 30033 ft 481 kts 196°
2026-05-05 08:10 -10.11252 -46.34283 30035 ft 481 kts 196°
2026-05-05 08:10 -10.17650 -46.36113 30039 ft 481 kts 196°
2026-05-05 08:11 -10.24057 -46.38064 30036 ft 480 kts 198°
2026-05-05 08:11 -10.30424 -46.40090 30036 ft 479 kts 198°
2026-05-05 08:12 -10.36794 -46.42112 30038 ft 479 kts 198°
2026-05-05 08:12 -10.43157 -46.44114 30039 ft 478 kts 198°
2026-05-05 08:13 -10.49517 -46.46111 30043 ft 478 kts 198°
2026-05-05 08:13 -10.55879 -46.48108 30047 ft 478 kts 198°
2026-05-05 08:14 -10.62191 -46.50091 30043 ft 478 kts 198°
2026-05-05 08:14 -10.68551 -46.52090 30051 ft 478 kts 198°
2026-05-05 08:15 -10.74911 -46.54091 30049 ft 478 kts 198°
2026-05-05 08:15 -10.81268 -46.56091 30055 ft 478 kts 198°
2026-05-05 08:16 -10.87621 -46.58091 30051 ft 477 kts 198°
2026-05-05 08:16 -10.93961 -46.60087 30050 ft 477 kts 198°
2026-05-05 08:17 -11.00295 -46.62083 30062 ft 476 kts 198°
2026-05-05 08:17 -11.06634 -46.64081 30059 ft 477 kts 198°
2026-05-05 08:18 -11.12935 -46.66068 30056 ft 477 kts 198°
2026-05-05 08:18 -11.19280 -46.68070 30055 ft 477 kts 198°
2026-05-05 08:19 -11.25624 -46.70073 30053 ft 477 kts 198°
2026-05-05 08:19 -11.31967 -46.72076 30058 ft 477 kts 198°
2026-05-05 08:20 -11.38288 -46.74073 30056 ft 477 kts 198°
2026-05-05 08:20 -11.44642 -46.76081 30058 ft 477 kts 198°
2026-05-05 08:21 -11.50994 -46.78090 30050 ft 478 kts 198°
2026-05-05 08:21 -11.57348 -46.80100 30058 ft 478 kts 198°
2026-05-05 08:22 -11.63672 -46.82102 30052 ft 478 kts 198°
2026-05-05 08:22 -11.70033 -46.84117 30050 ft 479 kts 198°
2026-05-05 08:23 -11.76409 -46.86137 30055 ft 479 kts 198°
2026-05-05 08:23 -11.82786 -46.88159 30057 ft 479 kts 198°
2026-05-05 08:24 -11.89144 -46.90175 30056 ft 479 kts 198°
2026-05-05 08:24 -11.95491 -46.92089 30051 ft 479 kts 196°
2026-05-05 08:25 -12.01947 -46.93750 30054 ft 478 kts 195°
2026-05-05 08:25 -12.08424 -46.95382 30049 ft 478 kts 195°
2026-05-05 08:26 -12.14889 -46.97032 30052 ft 478 kts 195°
2026-05-05 08:26 -12.21351 -46.98695 30048 ft 478 kts 195°
2026-05-05 08:27 -12.27764 -47.00351 30053 ft 478 kts 195°
2026-05-05 08:27 -12.34213 -47.02015 30051 ft 478 kts 195°
2026-05-05 08:28 -12.40668 -47.03682 30059 ft 478 kts 195°
2026-05-05 08:28 -12.47125 -47.05348 30050 ft 478 kts 195°
2026-05-05 08:29 -12.53578 -47.07016 30055 ft 478 kts 195°
2026-05-05 08:30 -12.63208 -47.09506 30055 ft 478 kts 195°
2026-05-05 08:30 -12.69668 -47.11177 30060 ft 478 kts 196°
2026-05-05 08:31 -12.76126 -47.12849 30057 ft 478 kts 196°
2026-05-05 08:31 -12.81497 -47.14240 30059 ft 478 kts 196°
2026-05-05 08:32 -12.89003 -47.16185 30067 ft 478 kts 196°
2026-05-05 08:32 -12.94408 -47.17587 30064 ft 479 kts 196°
2026-05-05 08:33 -13.01907 -47.19531 30069 ft 478 kts 196°
2026-05-05 08:33 -13.07279 -47.20925 30070 ft 478 kts 196°
2026-05-05 08:34 -13.13721 -47.22598 30074 ft 478 kts 196°
2026-05-05 08:34 -13.20164 -47.24273 30071 ft 477 kts 195°
2026-05-05 08:35 -13.26624 -47.25953 30084 ft 478 kts 196°
2026-05-05 08:35 -13.33080 -47.27633 30082 ft 479 kts 196°
2026-05-05 08:36 -13.39545 -47.29314 30092 ft 479 kts 196°
2026-05-05 08:36 -13.46027 -47.31004 30096 ft 480 kts 196°
2026-05-05 08:37 -13.52449 -47.32677 30104 ft 480 kts 196°
2026-05-05 08:37 -13.58906 -47.34470 30104 ft 479 kts 198°
2026-05-05 08:38 -13.65315 -47.36376 30097 ft 480 kts 198°
2026-05-05 08:38 -13.71729 -47.38282 30118 ft 479 kts 198°
2026-05-05 08:39 -13.78151 -47.40169 30116 ft 479 kts 198°
2026-05-05 08:39 -13.84515 -47.42032 30115 ft 479 kts 198°
2026-05-05 08:40 -13.90930 -47.43911 30122 ft 478 kts 198°
2026-05-05 08:40 -13.97332 -47.45787 30118 ft 478 kts 198°
2026-05-05 08:41 -14.03723 -47.47663 30127 ft 478 kts 198°
2026-05-05 08:41 -14.10123 -47.49542 30118 ft 478 kts 198°
2026-05-05 08:42 -14.16520 -47.51421 30124 ft 478 kts 198°
2026-05-05 08:42 -14.22874 -47.53289 30126 ft 478 kts 198°
2026-05-05 08:43 -14.29292 -47.55176 30124 ft 478 kts 198°
2026-05-05 08:43 -14.35693 -47.57060 30139 ft 478 kts 198°
2026-05-05 08:44 -14.42102 -47.58947 30127 ft 479 kts 198°
2026-05-05 08:44 -14.48507 -47.60834 30136 ft 478 kts 198°
2026-05-05 08:45 -14.54865 -47.62709 30127 ft 478 kts 198°
2026-05-05 08:45 -14.61254 -47.64617 30128 ft 477 kts 200°
2026-05-05 08:46 -14.67336 -47.67321 30135 ft 476 kts 209°
2026-05-05 08:46 -14.72955 -47.70926 30135 ft 475 kts 214°
2026-05-05 08:47 -14.78498 -47.74683 30132 ft 476 kts 214°
2026-05-05 08:47 -14.84058 -47.78425 30139 ft 477 kts 214°
2026-05-05 08:48 -14.89631 -47.82155 30138 ft 477 kts 214°
2026-05-05 08:48 -14.95206 -47.85884 30141 ft 477 kts 214°
2026-05-05 08:49 -15.00732 -47.89583 30130 ft 476 kts 214°
2026-05-05 08:49 -15.06301 -47.93315 30129 ft 476 kts 214°
2026-05-05 08:50 -15.11867 -47.97048 30116 ft 476 kts 214°
2026-05-05 08:50 -15.17425 -48.00778 30129 ft 476 kts 214°
2026-05-05 08:51 -15.22985 -48.04510 30127 ft 475 kts 213°
2026-05-05 08:51 -15.28698 -48.07861 30118 ft 476 kts 207°
2026-05-05 08:52 -15.34685 -48.10853 30134 ft 476 kts 207°
2026-05-05 08:52 -15.40649 -48.13879 30117 ft 477 kts 207°
2026-05-05 08:53 -15.46580 -48.16867 30128 ft 478 kts 205°
2026-05-05 08:53 -15.52879 -48.19065 30145 ft 480 kts 194°
2026-05-05 08:54 -15.59427 -48.20483 30136 ft 481 kts 193°
2026-05-05 08:54 -15.66000 -48.21894 30147 ft 481 kts 194°
2026-05-05 08:55 -15.72554 -48.23329 30161 ft 481 kts 194°
2026-05-05 08:55 -15.79104 -48.24780 30169 ft 481 kts 194°
2026-05-05 08:56 -15.85609 -48.26224 30162 ft 481 kts 194°
2026-05-05 08:56 -15.92151 -48.27676 30155 ft 481 kts 194°
2026-05-05 08:57 -15.98723 -48.29135 30156 ft 481 kts 194°
2026-05-05 08:57 -16.05263 -48.30588 30153 ft 481 kts 194°
2026-05-05 08:58 -16.11811 -48.32043 30171 ft 481 kts 194°
2026-05-05 08:58 -16.18354 -48.33499 30155 ft 481 kts 194°
2026-05-05 08:59 -16.24868 -48.34949 30150 ft 481 kts 194°
2026-05-05 08:59 -16.31416 -48.36407 30154 ft 481 kts 194°
2026-05-05 09:00 -16.37962 -48.37865 30153 ft 481 kts 194°
2026-05-05 09:00 -16.44508 -48.39327 30158 ft 481 kts 194°
2026-05-05 09:01 -16.51054 -48.40789 30151 ft 481 kts 194°
2026-05-05 09:01 -16.57559 -48.42241 30150 ft 481 kts 194°
2026-05-05 09:02 -16.64111 -48.43706 30150 ft 481 kts 194°
2026-05-05 09:02 -16.70532 -48.45628 30147 ft 479 kts 202°
2026-05-05 09:03 -16.76551 -48.48579 30156 ft 477 kts 208°
2026-05-05 09:03 -16.82497 -48.51667 30144 ft 477 kts 208°
2026-05-05 09:04 -16.88459 -48.54730 30145 ft 477 kts 207°
2026-05-05 09:04 -16.94430 -48.57781 30148 ft 478 kts 207°
2026-05-05 09:05 -17.00407 -48.60836 30143 ft 478 kts 207°
2026-05-05 09:05 -17.06376 -48.63890 30139 ft 478 kts 207°
2026-05-05 09:06 -17.12298 -48.66924 30142 ft 477 kts 207°
2026-05-05 09:06 -17.18271 -48.69986 30140 ft 477 kts 207°
2026-05-05 09:07 -17.24234 -48.73063 30146 ft 477 kts 208°
2026-05-05 09:07 -17.30136 -48.76236 30141 ft 476 kts 209°
2026-05-05 09:08 -17.36027 -48.79432 30134 ft 476 kts 208°
2026-05-05 09:08 -17.41906 -48.82607 30133 ft 476 kts 208°
2026-05-05 09:09 -17.47794 -48.85780 30137 ft 476 kts 208°
2026-05-05 09:09 -17.53652 -48.88938 30134 ft 476 kts 208°
2026-05-05 09:10 -17.59542 -48.92117 30135 ft 476 kts 208°
2026-05-05 09:10 -17.65427 -48.95297 30134 ft 476 kts 209°
2026-05-05 09:11 -17.71315 -48.98479 30140 ft 476 kts 208°
2026-05-05 09:11 -17.77221 -49.01651 30134 ft 476 kts 208°
2026-05-05 09:12 -17.83141 -49.04787 30134 ft 476 kts 208°
2026-05-05 09:12 -17.89055 -49.07924 30143 ft 476 kts 208°
2026-05-05 09:13 -17.94969 -49.11072 30135 ft 476 kts 208°
2026-05-05 09:13 -18.00835 -49.14197 30135 ft 475 kts 208°
2026-05-05 09:14 -18.06730 -49.17341 30127 ft 475 kts 208°
2026-05-05 09:14 -18.12621 -49.20487 30129 ft 475 kts 208°
2026-05-05 09:15 -18.18496 -49.23655 30137 ft 474 kts 209°
2026-05-05 09:15 -18.24369 -49.26831 30120 ft 473 kts 209°
2026-05-05 09:16 -18.30183 -49.29974 30120 ft 473 kts 209°
2026-05-05 09:16 -18.36032 -49.33137 30116 ft 472 kts 208°
2026-05-05 09:17 -18.41872 -49.36297 30123 ft 471 kts 208°
2026-05-05 09:17 -18.47702 -49.39455 30129 ft 471 kts 208°
2026-05-05 09:18 -18.53532 -49.42615 30121 ft 470 kts 208°
2026-05-05 09:18 -18.59313 -49.45751 30114 ft 470 kts 208°
2026-05-05 09:19 -18.65119 -49.48902 30119 ft 470 kts 208°
2026-05-05 09:19 -18.69991 -49.51549 30115 ft 470 kts 208°
2026-05-05 09:20 -18.75764 -49.54688 30116 ft 469 kts 208°
2026-05-05 09:20 -18.81605 -49.57865 30118 ft 469 kts 208°
2026-05-05 09:21 -18.87367 -49.61016 30115 ft 468 kts 208°
2026-05-05 09:21 -18.93145 -49.64194 30117 ft 468 kts 208°
2026-05-05 09:22 -18.98924 -49.67375 30123 ft 468 kts 208°
2026-05-05 09:22 -19.04655 -49.70531 30117 ft 468 kts 208°
2026-05-05 09:23 -19.10429 -49.73711 30126 ft 468 kts 209°
2026-05-05 09:23 -19.16217 -49.76901 30114 ft 467 kts 209°
2026-05-05 09:24 -19.21982 -49.80082 30119 ft 467 kts 209°
2026-05-05 09:24 -19.27748 -49.83267 30122 ft 467 kts 209°
2026-05-05 09:25 -19.33506 -49.86449 30104 ft 467 kts 209°
2026-05-05 09:25 -19.39285 -49.89588 30123 ft 467 kts 208°
2026-05-05 09:26 -19.45054 -49.92657 30110 ft 467 kts 208°
2026-05-05 09:26 -19.50856 -49.95750 30106 ft 466 kts 208°
2026-05-05 09:27 -19.56644 -49.98848 30108 ft 466 kts 208°
2026-05-05 09:27 -19.62428 -50.01951 30104 ft 465 kts 208°
2026-05-05 09:28 -19.68211 -50.05056 30116 ft 465 kts 208°
2026-05-05 09:28 -19.73998 -50.08166 30111 ft 465 kts 208°
2026-05-05 09:29 -19.79731 -50.11248 30105 ft 465 kts 208°
2026-05-05 09:29 -19.85505 -50.14356 30103 ft 464 kts 208°
2026-05-05 09:30 -19.91272 -50.17462 30105 ft 464 kts 208°
2026-05-05 09:30 -19.97035 -50.20569 30107 ft 464 kts 208°
2026-05-05 09:31 -20.02767 -50.23675 30106 ft 464 kts 209°
2026-05-05 09:31 -20.08513 -50.26827 30099 ft 465 kts 209°
2026-05-05 09:32 -20.14278 -50.29979 30099 ft 465 kts 208°
2026-05-05 09:32 -20.20037 -50.33108 30111 ft 465 kts 208°
2026-05-05 09:33 -20.25804 -50.36244 30109 ft 466 kts 208°
2026-05-05 09:33 -20.31575 -50.39387 30110 ft 465 kts 209°
2026-05-05 09:34 -20.37307 -50.42514 30099 ft 465 kts 209°
2026-05-05 09:34 -20.43076 -50.45664 30107 ft 465 kts 209°
2026-05-05 09:35 -20.48843 -50.48815 30108 ft 465 kts 209°
2026-05-05 09:35 -20.57481 -50.53539 30100 ft 465 kts 209°
2026-05-05 09:36 -20.63236 -50.56691 30109 ft 465 kts 209°
2026-05-05 09:36 -20.68958 -50.59827 30105 ft 465 kts 209°
2026-05-05 09:37 -20.74716 -50.62986 30102 ft 465 kts 209°
2026-05-05 09:37 -20.80461 -50.66153 30099 ft 464 kts 210°
2026-05-05 09:38 -20.86172 -50.69385 30105 ft 464 kts 210°
2026-05-05 09:38 -20.91847 -50.72611 30114 ft 464 kts 210°
2026-05-05 09:39 -20.97562 -50.75852 30100 ft 464 kts 210°
2026-05-05 09:39 -21.03277 -50.79091 30103 ft 464 kts 210°
2026-05-05 09:40 -21.08979 -50.82326 30096 ft 464 kts 210°
2026-05-05 09:40 -21.14645 -50.85540 30104 ft 463 kts 210°
2026-05-05 09:41 -21.20356 -50.88763 30094 ft 464 kts 210°
2026-05-05 09:41 -21.26078 -50.91999 30102 ft 464 kts 210°
2026-05-05 09:42 -21.31757 -50.95219 30102 ft 464 kts 210°
2026-05-05 09:42 -21.37469 -50.98464 30099 ft 464 kts 210°
2026-05-05 09:43 -21.43186 -51.01713 30106 ft 465 kts 210°
2026-05-05 09:43 -21.48908 -51.04975 30103 ft 465 kts 210°
2026-05-05 09:44 -21.54578 -51.08237 30102 ft 465 kts 210°
2026-05-05 09:44 -21.60315 -51.11490 30107 ft 465 kts 210°
2026-05-05 09:45 -21.66075 -51.14696 30111 ft 466 kts 210°
2026-05-05 09:45 -21.71823 -51.17912 30103 ft 466 kts 210°
2026-05-05 09:46 -21.77555 -51.21078 30112 ft 466 kts 209°
2026-05-05 09:46 -21.83354 -51.24197 30101 ft 466 kts 208°
2026-05-05 09:47 -21.89158 -51.27322 30105 ft 466 kts 208°
2026-05-05 09:47 -21.94960 -51.30463 30104 ft 467 kts 209°
2026-05-05 09:48 -22.00773 -51.33617 30100 ft 467 kts 209°
2026-05-05 09:48 -22.06568 -51.36763 30101 ft 466 kts 209°
2026-05-05 09:49 -22.12365 -51.39915 30123 ft 466 kts 209°
2026-05-05 09:49 -22.18177 -51.43032 30102 ft 467 kts 207°
2026-05-05 09:50 -22.24111 -51.45804 30108 ft 468 kts 205°
2026-05-05 09:50 -22.30114 -51.48538 30106 ft 468 kts 205°
2026-05-05 09:51 -22.36115 -51.51294 30106 ft 469 kts 205°
2026-05-05 09:51 -22.42114 -51.54070 30112 ft 469 kts 205°
2026-05-05 09:52 -22.48119 -51.56856 30115 ft 469 kts 205°
2026-05-05 09:52 -22.54127 -51.59645 30114 ft 470 kts 206°
2026-05-05 09:53 -22.60112 -51.62425 30112 ft 470 kts 206°
2026-05-05 09:53 -22.66125 -51.65221 30108 ft 469 kts 206°
2026-05-05 09:54 -22.72120 -51.68012 30122 ft 469 kts 206°
2026-05-05 09:54 -22.78138 -51.70816 30112 ft 470 kts 206°
2026-05-05 09:55 -22.84117 -51.73612 30120 ft 470 kts 206°
2026-05-05 09:55 -22.90123 -51.76417 30117 ft 470 kts 205°
2026-05-05 09:56 -22.96128 -51.79218 30120 ft 470 kts 206°
2026-05-05 09:56 -23.02139 -51.82025 30120 ft 470 kts 206°
2026-05-05 09:57 -23.08155 -51.84840 30127 ft 470 kts 206°
2026-05-05 09:57 -23.14158 -51.87651 30124 ft 470 kts 206°
2026-05-05 09:58 -23.20133 -51.90451 30125 ft 469 kts 206°
2026-05-05 09:58 -23.26131 -51.93266 30126 ft 469 kts 206°
2026-05-05 09:59 -23.32135 -51.96086 30133 ft 469 kts 206°
2026-05-05 09:59 -23.38136 -51.98907 30129 ft 470 kts 206°
2026-05-05 10:00 -23.44136 -52.01732 30134 ft 470 kts 206°
2026-05-05 10:00 -23.50107 -52.04543 30131 ft 470 kts 206°
2026-05-05 10:01 -23.56112 -52.07363 30132 ft 470 kts 206°
2026-05-05 10:01 -23.62113 -52.10186 30133 ft 469 kts 206°
2026-05-05 10:02 -23.68114 -52.13012 30127 ft 469 kts 206°
2026-05-05 10:02 -23.74096 -52.15845 30130 ft 468 kts 206°
2026-05-05 10:03 -23.80071 -52.18682 30133 ft 468 kts 206°
2026-05-05 10:03 -23.86010 -52.21502 30128 ft 468 kts 206°
2026-05-05 10:04 -23.91984 -52.24341 30145 ft 468 kts 206°
2026-05-05 10:04 -23.97968 -52.27188 30129 ft 468 kts 206°
2026-05-05 10:05 -24.03938 -52.30025 30143 ft 468 kts 206°
2026-05-05 10:05 -24.09914 -52.32852 30144 ft 467 kts 206°
2026-05-05 10:06 -24.15851 -52.35666 30140 ft 467 kts 206°
2026-05-05 10:06 -24.21816 -52.38498 30148 ft 467 kts 206°
2026-05-05 10:07 -24.27778 -52.41339 30153 ft 467 kts 206°
2026-05-05 10:07 -24.33742 -52.44194 30143 ft 467 kts 206°
2026-05-05 10:08 -24.39695 -52.47044 30147 ft 466 kts 206°
2026-05-05 10:08 -24.44645 -52.49413 30145 ft 467 kts 206°
2026-05-05 10:09 -24.50594 -52.52261 30161 ft 466 kts 206°
2026-05-05 10:09 -24.56548 -52.55117 30146 ft 466 kts 206°
2026-05-05 10:10 -24.62448 -52.57952 30149 ft 465 kts 206°
2026-05-05 10:10 -24.68376 -52.60829 30150 ft 465 kts 207°
2026-05-05 10:11 -24.74298 -52.63714 30150 ft 465 kts 207°
2026-05-05 10:11 -24.80219 -52.66598 30147 ft 465 kts 207°
2026-05-05 10:12 -24.86111 -52.69457 30146 ft 466 kts 206°
2026-05-05 10:12 -24.92058 -52.72300 30146 ft 465 kts 206°
2026-05-05 10:13 -24.98000 -52.75143 30153 ft 465 kts 206°
2026-05-05 10:13 -25.03939 -52.77994 30153 ft 466 kts 206°
2026-05-05 10:14 -25.09888 -52.80855 30145 ft 466 kts 207°
2026-05-05 10:14 -25.15841 -52.83721 30151 ft 466 kts 207°
2026-05-05 10:15 -25.21755 -52.86570 30141 ft 466 kts 207°
2026-05-05 10:15 -25.27689 -52.89466 30152 ft 466 kts 207°
2026-05-05 10:16 -25.33623 -52.92378 30161 ft 466 kts 207°
2026-05-05 10:16 -25.39559 -52.95306 30137 ft 467 kts 207°
2026-05-05 10:17 -25.45489 -52.98226 30140 ft 467 kts 207°
2026-05-05 10:17 -25.51410 -53.01083 30147 ft 466 kts 207°
2026-05-05 10:18 -25.57361 -53.03955 30144 ft 467 kts 207°
2026-05-05 10:18 -25.63327 -53.06857 30153 ft 467 kts 207°
2026-05-05 10:19 -25.69281 -53.09775 30133 ft 468 kts 207°
2026-05-05 10:19 -25.75236 -53.12697 30137 ft 468 kts 207°
2026-05-05 10:20 -25.81190 -53.15622 30144 ft 468 kts 207°
2026-05-05 10:20 -25.87112 -53.18531 30136 ft 468 kts 207°
2026-05-05 10:21 -25.93069 -53.21462 30139 ft 468 kts 207°
2026-05-05 10:21 -25.99018 -53.24390 30139 ft 467 kts 207°
2026-05-05 10:22 -26.04969 -53.27323 30146 ft 468 kts 207°
2026-05-05 10:22 -26.10934 -53.30268 30146 ft 469 kts 207°
2026-05-05 10:23 -26.16895 -53.33214 30143 ft 469 kts 207°
2026-05-05 10:23 -26.22859 -53.36164 30151 ft 469 kts 207°
2026-05-05 10:24 -26.28797 -53.39102 30157 ft 469 kts 207°
2026-05-05 10:24 -26.34763 -53.42062 30134 ft 470 kts 207°
2026-05-05 10:25 -26.40736 -53.45027 30136 ft 470 kts 207°
2026-05-05 10:25 -26.46711 -53.47992 30132 ft 469 kts 207°
2026-05-05 10:26 -26.52687 -53.50947 30143 ft 470 kts 207°
2026-05-05 10:26 -26.58675 -53.53910 30135 ft 470 kts 207°
2026-05-05 10:27 -26.64633 -53.56867 30135 ft 470 kts 207°
2026-05-05 10:27 -26.70615 -53.59852 30123 ft 470 kts 207°
2026-05-05 10:28 -26.76569 -53.62877 30122 ft 468 kts 210°
2026-05-05 10:28 -26.82082 -53.66690 30124 ft 464 kts 218°
2026-05-05 10:29 -26.87424 -53.70779 30108 ft 465 kts 217°
2026-05-05 10:29 -26.92830 -53.74772 30126 ft 466 kts 217°
2026-05-05 10:30 -26.98210 -53.78743 30124 ft 466 kts 217°
2026-05-05 10:30 -27.03617 -53.82757 30109 ft 466 kts 217°
2026-05-05 10:31 -27.09031 -53.86785 30119 ft 466 kts 217°
2026-05-05 10:31 -27.14442 -53.90815 30110 ft 466 kts 217°
2026-05-05 10:32 -27.19846 -53.94845 30105 ft 466 kts 217°
2026-05-05 10:32 -27.25243 -53.98884 30105 ft 466 kts 217°
2026-05-05 10:33 -27.30606 -54.02904 30101 ft 466 kts 217°
2026-05-05 10:33 -27.36004 -54.06954 30096 ft 466 kts 217°
2026-05-05 10:34 -27.41391 -54.10999 30114 ft 465 kts 217°
2026-05-05 10:34 -27.46784 -54.15056 30099 ft 466 kts 217°
2026-05-05 10:35 -27.52175 -54.19114 30097 ft 466 kts 217°
2026-05-05 10:35 -27.57560 -54.23173 30097 ft 466 kts 217°
2026-05-05 10:36 -27.62952 -54.27238 30091 ft 466 kts 217°
2026-05-05 10:36 -27.68337 -54.31234 30094 ft 466 kts 217°
2026-05-05 10:37 -27.73759 -54.35246 30106 ft 466 kts 217°
2026-05-05 10:37 -27.79179 -54.39275 30086 ft 466 kts 217°
2026-05-05 10:38 -27.84596 -54.43308 30086 ft 466 kts 217°
2026-05-05 10:38 -27.89994 -54.47359 30088 ft 465 kts 217°
2026-05-05 10:39 -27.95338 -54.51494 30081 ft 465 kts 218°
2026-05-05 10:39 -28.00679 -54.55644 30078 ft 465 kts 218°
2026-05-05 10:40 -28.05990 -54.59758 30092 ft 465 kts 218°
2026-05-05 10:40 -28.11336 -54.63899 30079 ft 465 kts 218°
2026-05-05 10:41 -28.16674 -54.68039 30077 ft 465 kts 218°
2026-05-05 10:41 -28.22027 -54.72197 30076 ft 465 kts 218°
2026-05-05 10:42 -28.29997 -54.78428 30074 ft 465 kts 218°
2026-05-05 10:43 -28.35293 -54.82591 30077 ft 465 kts 218°
2026-05-05 10:43 -28.40615 -54.86778 30074 ft 465 kts 218°
2026-05-05 10:44 -28.45927 -54.90960 30074 ft 465 kts 218°
2026-05-05 10:44 -28.51249 -54.95154 30075 ft 464 kts 218°
2026-05-05 10:45 -28.56561 -54.99346 30070 ft 464 kts 218°
2026-05-05 10:45 -28.61835 -55.03513 30073 ft 464 kts 218°
2026-05-05 10:46 -28.67135 -55.07706 30074 ft 463 kts 218°
2026-05-05 10:46 -28.72429 -55.11899 30074 ft 462 kts 218°
2026-05-05 10:47 -28.77710 -55.16088 30074 ft 461 kts 218°
2026-05-05 10:47 -28.82946 -55.20246 30063 ft 461 kts 218°
2026-05-05 10:48 -28.88212 -55.24433 30065 ft 461 kts 218°
2026-05-05 10:48 -28.93479 -55.28626 30066 ft 461 kts 219°
2026-05-05 10:49 -28.98743 -55.32821 30060 ft 461 kts 219°
2026-05-05 10:49 -29.04002 -55.37018 30057 ft 461 kts 219°
2026-05-05 10:50 -29.09221 -55.41190 30056 ft 460 kts 219°
2026-05-05 10:50 -29.14475 -55.45394 30059 ft 460 kts 219°
2026-05-05 10:51 -29.19727 -55.49601 30056 ft 460 kts 219°
2026-05-05 10:51 -29.24983 -55.53817 30053 ft 460 kts 219°
2026-05-05 10:52 -29.30228 -55.58029 30069 ft 460 kts 219°
2026-05-05 10:52 -29.35467 -55.62244 30053 ft 460 kts 219°
2026-05-05 10:53 -29.40669 -55.66433 30050 ft 460 kts 219°
2026-05-05 10:53 -29.45903 -55.70652 30057 ft 460 kts 219°
2026-05-05 10:54 -29.51145 -55.74884 30046 ft 460 kts 219°
2026-05-05 10:54 -29.56375 -55.79112 30054 ft 460 kts 219°
2026-05-05 10:55 -29.61608 -55.83347 30047 ft 460 kts 219°
2026-05-05 10:55 -29.65953 -55.86869 30046 ft 460 kts 219°
2026-05-05 10:56 -29.72040 -55.91808 30037 ft 460 kts 219°
2026-05-05 10:56 -29.76390 -55.95343 30056 ft 460 kts 219°
2026-05-05 10:57 -29.81618 -55.99595 30045 ft 460 kts 219°
2026-05-05 10:57 -29.86841 -56.03849 30043 ft 460 kts 219°
2026-05-05 10:58 -29.92058 -56.08104 30068 ft 459 kts 219°
2026-05-05 10:58 -29.97277 -56.12367 30051 ft 460 kts 219°
2026-05-05 10:59 -30.02495 -56.16634 30045 ft 460 kts 219°
2026-05-05 10:59 -30.07714 -56.20906 30044 ft 460 kts 219°
2026-05-05 11:00 -30.12936 -56.25188 30041 ft 460 kts 219°
2026-05-05 11:00 -30.18145 -56.29465 30049 ft 459 kts 219°
2026-05-05 11:01 -30.23355 -56.33749 30068 ft 459 kts 219°
2026-05-05 11:01 -30.28559 -56.38034 30053 ft 459 kts 220°
2026-05-05 11:02 -30.33768 -56.42327 30033 ft 459 kts 220°
2026-05-05 11:02 -30.39152 -56.46268 30043 ft 464 kts 212°
2026-05-05 11:03 -30.45126 -56.49229 30050 ft 469 kts 205°
2026-05-05 11:03 -30.51274 -56.51786 30045 ft 470 kts 205°
2026-05-05 11:04 -30.57427 -56.54378 30036 ft 470 kts 205°
2026-05-05 11:04 -30.63573 -56.57004 30040 ft 470 kts 205°
2026-05-05 11:05 -30.69671 -56.59615 30037 ft 470 kts 205°
2026-05-05 11:05 -30.75788 -56.62301 30039 ft 469 kts 206°
2026-05-05 11:06 -30.81873 -56.65050 30041 ft 469 kts 206°
2026-05-05 11:06 -30.87960 -56.67782 30035 ft 469 kts 206°
2026-05-05 11:07 -30.94024 -56.70493 30038 ft 469 kts 206°
2026-05-05 11:07 -31.00131 -56.73220 30034 ft 469 kts 206°
2026-05-05 11:08 -31.06230 -56.75949 30060 ft 469 kts 206°
2026-05-05 11:08 -31.12340 -56.78689 30032 ft 470 kts 206°
2026-05-05 11:09 -31.18454 -56.81435 30034 ft 470 kts 206°
2026-05-05 11:09 -31.24525 -56.84165 30036 ft 470 kts 206°
2026-05-05 11:10 -31.30629 -56.86913 30027 ft 469 kts 206°
2026-05-05 11:10 -31.36715 -56.89658 30039 ft 468 kts 207°
2026-05-05 11:11 -31.42805 -56.92408 30027 ft 468 kts 207°
2026-05-05 11:11 -31.48881 -56.95156 30022 ft 468 kts 207°
2026-05-05 11:12 -31.54951 -56.97906 30026 ft 468 kts 207°
2026-05-05 11:12 -31.60993 -57.00645 30042 ft 468 kts 207°
2026-05-05 11:13 -31.67082 -57.03412 30019 ft 469 kts 207°
2026-05-05 11:13 -31.73185 -57.06187 30022 ft 469 kts 207°
2026-05-05 11:14 -31.79283 -57.08966 30022 ft 470 kts 207°
2026-05-05 11:14 -31.85287 -57.11865 30024 ft 469 kts 208°
2026-05-05 11:15 -31.91319 -57.14807 30016 ft 469 kts 208°
2026-05-05 11:15 -31.97398 -57.17643 30019 ft 469 kts 207°
2026-05-05 11:16 -32.03491 -57.20414 30020 ft 469 kts 207°
2026-05-05 11:16 -32.09580 -57.23196 30016 ft 469 kts 207°
2026-05-05 11:17 -32.15632 -57.25982 30023 ft 469 kts 207°
2026-05-05 11:17 -32.20736 -57.28340 30005 ft 470 kts 207°